M I D A S
Marine Information and Data Acquisition System
Tripno 1870 of the Zeeleeuw from 2010-04-28 06:30:26 to 2010-04-28 15:18:35
Back to CruiseResearch ActivitiesStationsMapUnderway DataData graphs

EquipmentUnitsComment
TimeDGPSUTC
LatitudeDGPSDM.mWGS84
LongitudeDGPSDM.mWGS84
TemperatureSBE03/SBE38deg celciusITS90
ConductivitySBE21S/mITS90
SalinitySBE21 Practical Salinity Units
ChlorophylAChelsea fluorimeterg/lCalibrated in Aceton
Missing or incorrect values are displayed as -999
Sea surface data collected by the RV Zeeleeuw from 2010-04-28 06:55:22 to 2010-04-28 15:37:59
                                                                                    Next 1000 lines
Time Latitude Longitude Temperature Conductivity Salinity ChlorophylA
2010-04-28 06:55:31 51°13.661 2°55.956 18.9421 0.085972 0.45315 -1.035392
2010-04-28 06:55:37 51°13.662 2°55.951 19.089 0.086076 0.453725 -1.035392
2010-04-28 06:55:42 51°13.664 2°55.946 19.063 0.086076 0.453725 -1.035392
2010-04-28 06:55:47 51°13.665 2°55.941 19.0631 0.085972 0.453163 -1.000568
2010-04-28 06:55:52 51°13.667 2°55.935 19.0717 0.086076 0.453739 -1.035392
2010-04-28 06:55:57 51°13.668 2°55.928 19.1151 0.085972 0.453163 -1.035392
2010-04-28 06:56:03 51°13.671 2°55.919 19.0986 0.085972 0.453177 -1.000568
2010-04-28 06:56:07 51°13.672 2°55.913 19.0946 0.085972 0.453184 -1.000568
2010-04-28 06:56:12 51°13.674 2°55.905 19.0971 0.085972 0.453184 -1.000568
2010-04-28 06:56:17 51°13.676 2°55.897 19.084 0.085972 0.453184 -1.035392
2010-04-28 06:56:23 51°13.678 2°55.887 19.1037 0.085972 0.453184 -1.000568
2010-04-28 06:56:27 51°13.68 2°55.881 19.11 0.086076 0.453753 -1.000568
2010-04-28 06:56:32 51°13.682 2°55.872 19.1048 0.086076 0.453753 -1.035392
2010-04-28 06:56:38 51°13.683 2°55.862 19.1306 0.086076 0.453759 -1.035392
2010-04-28 06:56:42 51°13.684 2°55.856 19.1165 0.086076 0.453759 -1.035392
2010-04-28 06:56:47 51°13.686 2°55.847 19.1245 0.085972 0.453191 -1.000568
2010-04-28 06:56:52 51°13.687 2°55.838 19.1272 0.085972 0.453198 -1.035392
2010-04-28 06:56:57 51°13.688 2°55.83 19.1267 0.086076 0.453766 -1.000568
2010-04-28 06:57:02 51°13.689 2°55.822 19.1265 0.085972 0.453205 -1.035392
2010-04-28 06:57:07 51°13.69 2°55.814 19.1246 0.086076 0.45378 -1.000568
2010-04-28 06:57:12 51°13.691 2°55.806 19.1233 0.086076 0.45378 -1.000568
2010-04-28 06:57:17 51°13.691 2°55.799 19.1229 0.086076 0.453773 -1.070216
2010-04-28 06:57:22 51°13.692 2°55.792 19.1224 0.086076 0.45378 -1.035392
2010-04-28 06:57:27 51°13.692 2°55.785 19.1218 0.085972 0.453212 -1.000568
2010-04-28 06:57:32 51°13.692 2°55.779 19.1218 0.085972 0.453219 -1.035392
2010-04-28 06:57:37 51°13.692 2°55.774 19.1351 0.085972 0.453219 -1.000568
2010-04-28 06:57:43 51°13.693 2°55.769 19.1453 0.085972 0.453219 -1.000568
2010-04-28 06:57:47 51°13.693 2°55.767 19.1384 0.085972 0.453219 -1.035392
2010-04-28 06:57:52 51°13.694 2°55.766 19.1346 0.085972 0.453219 -1.000568
2010-04-28 06:57:57 51°13.695 2°55.764 19.1082 0.085972 0.453219 -1.000568
2010-04-28 06:58:03 51°13.695 2°55.763 19.0944 0.086076 0.453801 -1.035392
2010-04-28 06:58:07 51°13.696 2°55.762 19.0825 0.085972 0.45324 -1.035392
2010-04-28 06:58:12 51°13.695 2°55.761 19.0886 0.085972 0.45324 -1.035392
2010-04-28 06:58:17 51°13.695 2°55.759 19.0942 0.085972 0.453247 -1.035392
2010-04-28 06:58:23 51°13.694 2°55.758 19.1114 0.085972 0.453247 -1.000568
2010-04-28 06:58:27 51°13.694 2°55.756 19.1089 0.085972 0.453247 -1.000568
2010-04-28 06:58:32 51°13.693 2°55.754 19.1058 0.085972 0.453254 -1.035392
2010-04-28 06:58:37 51°13.692 2°55.751 19.131 0.086076 0.453822 -1.035392
2010-04-28 06:58:43 51°13.692 2°55.749 19.1484 0.086076 0.453822 -1.035392
2010-04-28 06:58:47 51°13.692 2°55.748 19.1576 0.085972 0.45326 -1.035392
2010-04-28 06:58:52 51°13.693 2°55.748 19.1565 0.086076 0.453822 -1.000568
2010-04-28 06:58:58 51°13.694 2°55.748 19.1623 0.085972 0.453254 -1.000568
2010-04-28 06:59:02 51°13.695 2°55.748 19.1414 0.085972 0.453254 -1.035392
2010-04-28 06:59:07 51°13.696 2°55.748 19.1478 0.085972 0.453254 -1.000568
2010-04-28 06:59:12 51°13.698 2°55.748 19.1401 0.085972 0.453254 -1.000568
2010-04-28 06:59:18 51°13.7 2°55.748 19.146 0.085972 0.453267 -1.000568
2010-04-28 06:59:22 51°13.702 2°55.748 19.177 0.085972 0.453274 -1.035392
2010-04-28 06:59:27 51°13.705 2°55.747 19.201 0.085972 0.453274 -1.000568
2010-04-28 06:59:32 51°13.708 2°55.746 19.2128 0.085972 0.453281 -1.035392
2010-04-28 06:59:38 51°13.712 2°55.744 19.2184 0.085972 0.453288 -1.035392
2010-04-28 06:59:43 51°13.715 2°55.741 19.2107 0.085972 0.453288 -1.035392
2010-04-28 06:59:47 51°13.718 2°55.739 19.2042 0.085972 0.453302 -1.070216
2010-04-28 06:59:53 51°13.723 2°55.734 19.1773 0.085972 0.453309 -1.000568
2010-04-28 06:59:58 51°13.727 2°55.73 19.1649 0.085972 0.453309 -1.000568
2010-04-28 07:00:03 51°13.732 2°55.725 19.1186 0.085972 0.453302 -1.035392
2010-04-28 07:00:07 51°13.735 2°55.721 19.1136 0.085972 0.453302 -1.035392
2010-04-28 07:00:12 51°13.74 2°55.715 19.1099 0.085972 0.453302 -1.035392
2010-04-28 07:00:18 51°13.747 2°55.708 19.1143 0.085972 0.453295 -1.000568
2010-04-28 07:00:23 51°13.753 2°55.702 19.0354 0.085972 0.453295 -1.000568
2010-04-28 07:00:27 51°13.758 2°55.698 19.0197 0.085972 0.453295 -1.000568
2010-04-28 07:00:32 51°13.765 2°55.692 19.0486 0.085972 0.453288 -1.035392
2010-04-28 07:00:37 51°13.773 2°55.685 19.0413 0.085972 0.453288 -1.035392
2010-04-28 07:00:43 51°13.782 2°55.677 19.0424 0.086076 0.453871 -1.035392
2010-04-28 07:00:47 51°13.789 2°55.672 19.0236 0.085972 0.453309 -1.035392
2010-04-28 07:00:52 51°13.797 2°55.665 19.0264 0.085972 0.45333 -1.035392
2010-04-28 07:00:57 51°13.806 2°55.659 19.0265 0.085972 0.453323 -1.035392
2010-04-28 07:01:02 51°13.815 2°55.652 19.0354 0.085972 0.453344 -1.000568
2010-04-28 07:01:07 51°13.825 2°55.644 19.0372 0.085972 0.453351 -1.035392
2010-04-28 07:01:12 51°13.835 2°55.637 19.0417 0.085972 0.453351 -1.035392
2010-04-28 07:01:17 51°13.845 2°55.63 18.96 0.085972 0.453351 -1.035392
2010-04-28 07:01:22 51°13.856 2°55.623 19.0371 0.085972 0.453364 -1.000568
2010-04-28 07:01:27 51°13.866 2°55.616 18.9992 0.085972 0.453364 -1.035392
2010-04-28 07:01:32 51°13.877 2°55.608 19.0121 0.085972 0.453378 -1.035392
2010-04-28 07:01:38 51°13.89 2°55.599 19.0633 0.085972 0.453371 -1.000568
2010-04-28 07:01:42 51°13.899 2°55.592 19.0302 0.085972 0.453371 -1.000568
2010-04-28 07:01:47 51°13.91 2°55.584 18.9705 0.085972 0.453385 -1.035392
2010-04-28 07:01:52 51°13.922 2°55.576 18.9958 0.085972 0.453392 -1.035392
2010-04-28 07:01:58 51°13.935 2°55.567 19.0075 0.085972 0.453385 -1.035392
2010-04-28 07:02:03 51°13.947 2°55.559 19.0495 0.085972 0.453385 -1.035392
2010-04-28 07:02:07 51°13.956 2°55.552 19.0477 0.085972 0.453392 -1.000568
2010-04-28 07:02:12 51°13.969 2°55.543 19.0474 0.085972 0.453392 -1.000568
2010-04-28 07:02:17 51°13.981 2°55.534 19.0622 0.085972 0.453385 -1.000568
2010-04-28 07:02:22 51°13.993 2°55.526 19.0459 0.085972 0.453399 -1.000568
2010-04-28 07:02:27 51°14.006 2°55.517 19.0149 0.085972 0.453392 -1.035392
2010-04-28 07:02:32 51°14.018 2°55.508 18.9753 0.085972 0.453399 -1.000568
2010-04-28 07:02:37 51°14.031 2°55.498 18.9614 0.085972 0.453399 -1.035392
2010-04-28 07:02:42 51°14.044 2°55.489 18.9448 0.085972 0.453399 -1.035392
2010-04-28 07:02:47 51°14.058 2°55.479 19.0039 0.085972 0.453392 -1.000568
2010-04-28 07:02:52 51°14.071 2°55.469 19.0056 0.085972 0.453392 -1.035392
2010-04-28 07:02:57 51°14.085 2°55.459 19.0347 0.085972 0.453399 -1.035392
2010-04-28 07:03:03 51°14.1 2°55.447 19.0233 0.085972 0.453399 -1.035392
2010-04-28 07:03:07 51°14.111 2°55.438 19.0276 0.085972 0.453406 -1.000568
2010-04-28 07:03:12 51°14.124 2°55.428 19.0434 0.085972 0.453406 -1.000568
2010-04-28 07:03:17 51°14.138 2°55.417 19.0411 0.085972 0.453399 -1.000568
2010-04-28 07:03:22 51°14.151 2°55.406 19.0334 0.085972 0.453413 -1.000568
2010-04-28 07:03:27 51°14.164 2°55.394 19.0327 0.085972 0.453413 -1.035392
2010-04-28 07:03:32 51°14.177 2°55.382 19.017 0.085972 0.453413 -1.035392
2010-04-28 07:03:37 51°14.19 2°55.371 19.0225 0.085972 0.45342 -1.000568
2010-04-28 07:03:42 51°14.203 2°55.359 19.0645 0.085972 0.45342 -1.000568
2010-04-28 07:03:47 51°14.216 2°55.347 19.0794 0.085972 0.453427 -1.035392
2010-04-28 07:03:52 51°14.229 2°55.335 19.0584 0.085972 0.45342 -1.000568
2010-04-28 07:03:57 51°14.241 2°55.322 19.0164 0.085972 0.453434 -1.000568
2010-04-28 07:04:02 51°14.254 2°55.31 19.0332 0.085972 0.453427 -1.035392
2010-04-28 07:04:07 51°14.266 2°55.298 19.013 0.085972 0.453434 -1.000568
2010-04-28 07:04:11 51°14.277 2°55.288 19.0153 0.085972 0.453434 -1.000568
2010-04-28 07:04:16 51°14.289 2°55.276 19.0294 0.085972 0.453427 -1.035392
2010-04-28 07:04:21 51°14.302 2°55.263 19.0498 0.085972 0.453434 -1.000568
2010-04-28 07:04:26 51°14.314 2°55.251 19.0513 0.085972 0.453434 -1.035392
2010-04-28 07:04:31 51°14.326 2°55.238 19.0424 0.085972 0.453441 -1.000568
2010-04-28 07:04:36 51°14.339 2°55.226 19.0074 0.085972 0.453441 -1.000568
2010-04-28 07:04:41 51°14.352 2°55.213 19.0063 0.085972 0.453441 -1.000568
2010-04-28 07:04:46 51°14.365 2°55.201 19.1138 0.085972 0.453441 -1.035392
2010-04-28 07:04:51 51°14.378 2°55.188 19.0159 0.085972 0.453441 -1.035392
2010-04-28 07:04:55 51°14.388 2°55.178 19.0857 0.085972 0.453462 -1.035392
2010-04-28 07:05:00 51°14.401 2°55.165 19.0391 0.085972 0.453455 -1.000568
2010-04-28 07:05:05 51°14.415 2°55.151 18.9261 0.085972 0.453469 -1.035392
2010-04-28 07:05:10 51°14.428 2°55.137 18.9306 0.085972 0.453469 -1.035392
2010-04-28 07:05:15 51°14.441 2°55.123 18.929 0.085972 0.453462 -1.000568
2010-04-28 07:05:19 51°14.452 2°55.113 19.0637 0.085972 0.453462 -1.000568
2010-04-28 07:05:24 51°14.466 2°55.099 19.0735 0.085972 0.453462 -1.035392
2010-04-28 07:05:29 51°14.48 2°55.084 19.0707 0.085972 0.453476 -1.035392
2010-04-28 07:05:34 51°14.493 2°55.07 18.9583 0.085972 0.453482 -1.000568
2010-04-28 07:05:39 51°14.506 2°55.055 19.0104 0.085972 0.453482 -1.000568
2010-04-28 07:05:44 51°14.52 2°55.039 19.0853 0.085972 0.453482 -1.000568
2010-04-28 07:05:49 51°14.532 2°55.023 19.0283 0.085972 0.453482 -1.000568
2010-04-28 07:05:54 51°14.544 2°55.005 18.9124 0.085972 0.453496 -1.000568
2010-04-28 07:05:59 51°14.556 2°54.988 18.8627 0.085972 0.453496 -1.035392
2010-04-28 07:06:03 51°14.566 2°54.975 18.8283 0.085972 0.453482 -1.035392
2010-04-28 07:06:09 51°14.58 2°54.956 18.8611 0.085972 0.453482 -1.035392
2010-04-28 07:06:14 51°14.592 2°54.941 19.0012 0.085972 0.453476 -1.000568
2010-04-28 07:06:19 51°14.605 2°54.928 19.0468 0.085972 0.453476 -1.035392
2010-04-28 07:06:23 51°14.615 2°54.917 19.0433 0.085972 0.453496 -1.070216
2010-04-28 07:06:29 51°14.631 2°54.9 19.0562 0.085972 0.453503 -1.000568
2010-04-28 07:06:34 51°14.644 2°54.885 19.0015 0.085972 0.45351 -1.035392
2010-04-28 07:06:39 51°14.658 2°54.871 18.9822 0.085972 0.45351 -1.035392
2010-04-28 07:06:43 51°14.669 2°54.859 19.0288 0.085972 0.453517 -1.035392
2010-04-28 07:06:49 51°14.686 2°54.842 19.0612 0.085972 0.45351 -1.000568
2010-04-28 07:06:54 51°14.7 2°54.827 18.984 0.085972 0.45351 -1.035392
2010-04-28 07:06:59 51°14.714 2°54.812 18.9929 0.085972 0.45351 -1.035392
2010-04-28 07:07:04 51°14.729 2°54.797 18.9893 0.085972 0.453517 -1.000568
2010-04-28 07:07:09 51°14.743 2°54.782 19.0586 0.085972 0.453517 -1.000568
2010-04-28 07:07:14 51°14.758 2°54.767 19.1002 0.085972 0.453531 -1.000568
2010-04-28 07:07:19 51°14.772 2°54.751 18.9161 0.085972 0.453524 -1.035392
2010-04-28 07:07:24 51°14.787 2°54.735 19.0564 0.085972 0.453538 -1.035392
2010-04-28 07:07:29 51°14.802 2°54.719 18.9796 0.085972 0.453531 -1.000568
2010-04-28 07:07:34 51°14.816 2°54.703 19.0186 0.085972 0.453545 -1.035392
2010-04-28 07:07:39 51°14.832 2°54.687 18.9457 0.085972 0.453545 -1.035392
2010-04-28 07:07:44 51°14.847 2°54.671 18.9987 0.085972 0.453545 -1.000568
2010-04-28 07:07:49 51°14.862 2°54.656 18.951 0.085972 0.453538 -1.000568
2010-04-28 07:07:54 51°14.877 2°54.641 19.035 0.085972 0.453538 -1.070216
2010-04-28 07:07:59 51°14.893 2°54.626 18.9984 0.085972 0.453545 -1.000568
2010-04-28 07:08:04 51°14.908 2°54.61 19.0263 0.085972 0.453538 -1.000568
2010-04-28 07:08:09 51°14.923 2°54.594 18.9927 0.085972 0.453538 -1.000568
2010-04-28 07:08:14 51°14.939 2°54.579 19.0598 0.085972 0.453545 -1.035392
2010-04-28 07:08:19 51°14.954 2°54.564 18.9496 0.085972 0.453552 -1.000568
2010-04-28 07:08:23 51°14.966 2°54.552 18.9784 0.085972 0.453566 -1.000568
2010-04-28 07:08:29 51°14.983 2°54.534 18.9081 0.085972 0.453559 -1.035392
2010-04-28 07:08:34 51°14.998 2°54.519 18.8347 0.085972 0.453566 -1.000568
2010-04-28 07:08:39 51°15.012 2°54.503 18.8137 0.085972 0.453566 -1.000568
2010-04-28 07:08:43 51°15.024 2°54.494 18.9212 0.085972 0.45358 -1.000568
2010-04-28 07:08:48 51°15.04 2°54.481 18.9142 0.085972 0.453566 -1.035392
2010-04-28 07:08:54 51°15.06 2°54.469 18.8859 0.085972 0.453566 -1.000568
2010-04-28 07:08:59 51°15.076 2°54.459 18.9222 0.085972 0.45358 -1.035392
2010-04-28 07:09:03 51°15.089 2°54.453 18.8717 0.085972 0.453573 -1.035392
2010-04-28 07:09:07 51°15.102 2°54.447 18.9583 0.085972 0.453573 -1.035392
2010-04-28 07:09:14 51°15.125 2°54.438 18.7707 0.085972 0.453573 -1.000568
2010-04-28 07:09:19 51°15.141 2°54.431 18.7902 0.085972 0.45358 -1.000568
2010-04-28 07:09:23 51°15.154 2°54.426 18.8205 0.085972 0.453594 -1.000568
2010-04-28 07:09:28 51°15.17 2°54.423 18.8343 0.085972 0.453573 -1.000568
2010-04-28 07:09:33 51°15.185 2°54.42 18.8517 0.085972 0.453594 -1.000568
2010-04-28 07:09:39 51°15.205 2°54.419 18.8236 0.085972 0.453594 -1.000568
2010-04-28 07:09:43 51°15.218 2°54.418 18.8535 0.085972 0.453594 -1.035392
2010-04-28 07:09:48 51°15.233 2°54.42 18.8025 0.085972 0.4536 -1.000568
2010-04-28 07:09:54 51°15.252 2°54.422 18.8124 0.085972 0.453614 -1.000568
2010-04-28 07:09:58 51°15.265 2°54.426 18.8551 0.085972 0.4536 -1.035392
2010-04-28 07:10:03 51°15.28 2°54.431 18.8763 0.085972 0.453607 -1.035392
2010-04-28 07:10:09 51°15.298 2°54.439 18.894 0.085972 0.453607 -1.035392
2010-04-28 07:10:14 51°15.313 2°54.447 18.9327 0.085972 0.4536 -1.000568
2010-04-28 07:10:19 51°15.327 2°54.456 18.9605 0.085972 0.4536 -1.000568
2010-04-28 07:10:23 51°15.338 2°54.464 18.9643 0.085972 0.453607 -1.035392
2010-04-28 07:10:29 51°15.355 2°54.476 18.8759 0.085972 0.453621 -1.000568
2010-04-28 07:10:34 51°15.369 2°54.487 18.9219 0.085972 0.453614 -1.000568
2010-04-28 07:10:39 51°15.383 2°54.497 18.7661 0.085972 0.453614 -1.000568
2010-04-28 07:10:43 51°15.394 2°54.507 18.8434 0.085972 0.453635 -1.035392
2010-04-28 07:10:49 51°15.41 2°54.523 18.8251 0.085972 0.453621 -1.000568
2010-04-28 07:10:54 51°15.423 2°54.537 18.8977 0.085972 0.453628 -1.035392
2010-04-28 07:10:59 51°15.435 2°54.554 18.8998 0.085972 0.453621 -1.000568
2010-04-28 07:11:03 51°15.445 2°54.567 18.9238 0.085972 0.453635 -1.000568
2010-04-28 07:11:08 51°15.455 2°54.585 18.913 0.085972 0.453635 -1.000568
2010-04-28 07:11:14 51°15.468 2°54.606 18.9459 0.085972 0.453642 -1.000568
2010-04-28 07:11:19 51°15.477 2°54.626 18.9082 0.085972 0.453642 -1.070216
2010-04-28 07:11:23 51°15.485 2°54.641 18.9717 0.085972 0.453656 -1.000568
2010-04-28 07:11:28 51°15.494 2°54.661 18.8951 0.085972 0.453656 -1.035392
2010-04-28 07:11:34 51°15.505 2°54.685 19.0063 0.085972 0.453649 -1.035392
2010-04-28 07:11:39 51°15.514 2°54.705 18.8449 0.085972 0.453649 -1.035392
2010-04-28 07:11:43 51°15.522 2°54.721 18.8836 0.085972 0.453663 -1.000568
2010-04-28 07:11:47 51°15.528 2°54.738 18.8866 0.085972 0.453656 -1.000568
2010-04-28 07:11:54 51°15.54 2°54.767 18.9065 0.085972 0.453656 -1.035392
2010-04-28 07:11:59 51°15.548 2°54.788 18.9265 0.085972 0.453663 -1.000568
2010-04-28 07:12:03 51°15.554 2°54.805 18.9336 0.085972 0.45367 -1.000568
2010-04-28 07:12:08 51°15.561 2°54.827 18.9324 0.085972 0.45367 -1.000568
2010-04-28 07:12:14 51°15.57 2°54.854 18.9636 0.085972 0.453684 -1.000568
2010-04-28 07:12:19 51°15.578 2°54.875 18.9745 0.085972 0.453684 -1.035392
2010-04-28 07:12:23 51°15.584 2°54.893 18.9722 0.085972 0.453684 -1.035392
2010-04-28 07:12:28 51°15.592 2°54.913 18.9765 0.085972 0.453705 -1.035392
2010-04-28 07:12:34 51°15.601 2°54.939 18.9147 0.085972 0.453691 -1.000568
2010-04-28 07:12:38 51°15.609 2°54.955 18.9731 0.085972 0.453691 -1.000568
2010-04-28 07:12:43 51°15.617 2°54.976 18.9671 0.085972 0.453698 -1.000568
2010-04-28 07:12:49 51°15.629 2°54.999 18.8707 0.085972 0.453705 -1.035392
2010-04-28 07:12:54 51°15.637 2°55.019 18.9084 0.085972 0.453705 -1.000568
2010-04-28 07:12:59 51°15.647 2°55.039 18.9835 0.085972 0.453719 -1.070216
2010-04-28 07:13:03 51°15.655 2°55.055 16.0208 0.085972 0.453712 -1.035392
2010-04-28 07:13:08 51°15.664 2°55.074 14.2977 0.085972 0.453712 -1.035392
2010-04-28 07:13:14 51°15.675 2°55.098 13.7398 0.084931 0.448415 -1.418457
2010-04-28 07:13:19 51°15.685 2°55.118 13.1501 0.084931 0.450079 -1.10504
2010-04-28 07:13:23 51°15.692 2°55.134 12.6459 0.084723 0.45173 1.924652
2010-04-28 07:13:28 51°15.701 2°55.155 12.4606 0.912955 5.618251 5.128465
2010-04-28 07:13:34 51°15.711 2°55.181 12.0696 2.118255 14.351654 8.123334
2010-04-28 07:13:39 51°15.719 2°55.202 11.9657 2.118255 14.351654 8.123334
2010-04-28 07:13:43 51°15.725 2°55.219 11.8689 2.534809 17.873153 8.715343
2010-04-28 07:13:48 51°15.734 2°55.241 11.7788 2.942488 21.867336 8.367102
2010-04-28 07:13:54 51°15.742 2°55.267 11.6849 3.362071 26.102479 7.705445
2010-04-28 07:13:59 51°15.75 2°55.289 11.6242 3.544349 28.282417 7.14826
2010-04-28 07:14:03 51°15.756 2°55.306 11.6057 3.629869 29.636359 6.97414
2010-04-28 07:14:08 51°15.764 2°55.328 11.5859 3.629869 29.636359 6.97414
2010-04-28 07:14:13 51°15.773 2°55.35 11.5304 3.609736 29.868086 6.939316
2010-04-28 07:14:19 51°15.782 2°55.376 11.5036 3.609531 30.290079 7.008964
2010-04-28 07:14:23 51°15.789 2°55.393 11.4843 3.58212 30.252249 7.078612
2010-04-28 07:14:29 51°15.799 2°55.418 11.4828 3.565569 30.310563 7.217908
2010-04-28 07:14:34 51°15.807 2°55.44 11.4907 3.547436 30.291457 7.078612
2010-04-28 07:14:38 51°15.813 2°55.457 11.4613 3.547436 30.291457 7.078612
2010-04-28 07:14:43 51°15.821 2°55.479 11.4506 3.532993 30.249578 7.043788
2010-04-28 07:14:48 51°15.828 2°55.501 11.4149 3.519077 30.191577 6.97414
2010-04-28 07:14:54 51°15.838 2°55.527 11.45 3.506954 30.153036 7.043788
2010-04-28 07:14:59 51°15.845 2°55.55 11.4016 3.507588 30.215252 6.939316
2010-04-28 07:15:03 51°15.852 2°55.567 11.4283 3.495464 30.12809 6.939316
2010-04-28 07:15:08 51°15.859 2°55.589 11.3845 3.495464 30.12809 6.939316
2010-04-28 07:15:14 51°15.868 2°55.616 11.3891 3.474801 29.966132 6.869668
2010-04-28 07:15:19 51°15.876 2°55.638 11.3699 3.497679 30.206248 6.765196
2010-04-28 07:15:23 51°15.882 2°55.655 11.3859 3.49167 30.17559 6.695548
2010-04-28 07:15:28 51°15.89 2°55.677 11.372 3.489456 30.177461 6.695548
2010-04-28 07:15:34 51°15.9 2°55.703 11.3569 3.48661 30.167483 6.695548
2010-04-28 07:15:39 51°15.908 2°55.725 11.3951 3.48661 30.167483 6.695548
2010-04-28 07:15:43 51°15.915 2°55.742 11.3521 3.478492 30.105595 6.660724
2010-04-28 07:15:47 51°15.921 2°55.759 11.3734 3.48914 30.214292 6.730372
2010-04-28 07:15:54 51°15.933 2°55.789 11.3403 3.489141 30.229755 6.834844
2010-04-28 07:15:59 51°15.941 2°55.811 11.3317 3.487665 30.236845 6.869668
2010-04-28 07:16:03 51°15.948 2°55.829 11.3376 3.485873 30.226702 6.904492
2010-04-28 07:16:08 51°15.955 2°55.851 11.3201 3.485873 30.226702 6.904492
2010-04-28 07:16:13 51°15.963 2°55.873 11.2997 3.410288 29.517089 6.904492
2010-04-28 07:16:19 51°15.972 2°55.9 11.3137 3.483975 30.231034 6.939316
2010-04-28 07:16:23 51°15.979 2°55.918 11.3092 3.484924 30.240169 7.008964
2010-04-28 07:16:28 51°15.987 2°55.941 11.3008 3.483238 30.232972 7.078612
2010-04-28 07:16:34 51°15.996 2°55.968 11.2933 3.483132 30.243592 7.183084
2010-04-28 07:16:39 51°16.004 2°55.99 11.3164 3.483132 30.243592 7.183084
2010-04-28 07:16:43 51°16.011 2°56.008 11.2961 3.481867 30.241104 7.252733
2010-04-28 07:16:48 51°16.019 2°56.03 11.2961 3.481551 30.250998 7.392029
2010-04-28 07:16:53 51°16.027 2°56.053 11.2874 3.480708 30.250636 7.461677
2010-04-28 07:16:59 51°16.036 2°56.08 11.2712 3.47997 30.249996 7.426853
2010-04-28 07:17:04 51°16.044 2°56.103 11.2835 3.4786 30.245845 7.287557
2010-04-28 07:17:08 51°16.05 2°56.122 11.2737 3.4786 30.245845 7.287557
2010-04-28 07:17:14 51°16.06 2°56.149 11.2859 3.476702 30.235959 7.14826
2010-04-28 07:17:19 51°16.068 2°56.172 11.2994 3.477651 30.245114 6.97414
2010-04-28 07:17:23 51°16.074 2°56.19 11.2775 3.476808 30.240864 6.834844
2010-04-28 07:17:28 51°16.082 2°56.213 11.2844 3.476597 30.242718 6.660724
2010-04-28 07:17:34 51°16.092 2°56.241 11.284 3.476492 30.252074 6.521427
2010-04-28 07:17:39 51°16.1 2°56.263 11.286 3.476492 30.252074 6.521427
2010-04-28 07:17:43 51°16.106 2°56.282 11.2911 3.475754 30.249489 6.556251
2010-04-28 07:17:49 51°16.116 2°56.309 11.2751 3.475438 30.252923 6.451779
2010-04-28 07:17:54 51°16.124 2°56.332 11.2971 3.473751 30.233392 6.416955
2010-04-28 07:17:59 51°16.132 2°56.355 11.3162 3.474067 30.238391 6.382131
2010-04-28 07:18:03 51°16.137 2°56.374 11.3097 3.471959 30.219976 6.451779
2010-04-28 07:18:08 51°16.145 2°56.398 11.3673 3.471959 30.219976 6.451779
2010-04-28 07:18:14 51°16.152 2°56.428 11.3556 3.473013 30.230156 6.451779
2010-04-28 07:18:19 51°16.159 2°56.452 11.3637 3.471537 30.218497 6.521427
2010-04-28 07:18:23 51°16.164 2°56.471 11.3686 3.464368 30.149281 6.521427
2010-04-28 07:18:27 51°16.169 2°56.491 11.3652 3.469956 30.207115 6.591076
2010-04-28 07:18:33 51°16.176 2°56.52 11.3239 3.465844 30.160295 6.591076
2010-04-28 07:18:39 51°16.182 2°56.55 11.3457 3.465844 30.160295 6.591076
2010-04-28 07:18:43 51°16.186 2°56.57 11.3716 3.469639 30.191107 6.556251
2010-04-28 07:18:48 51°16.191 2°56.596 11.3645 3.45604 30.045698 6.521427
2010-04-28 07:18:54 51°16.197 2°56.626 11.3254 3.471326 30.18021 6.521427
2010-04-28 07:18:59 51°16.202 2°56.652 11.3346 3.471536 30.174487 6.556251
2010-04-28 07:19:03 51°16.206 2°56.672 11.3287 3.471853 30.175598 6.486603
2010-04-28 07:19:09 51°16.212 2°56.702 11.3174 3.471853 30.175598 6.486603
2010-04-28 07:19:14 51°16.218 2°56.727 11.3162 3.469323 30.153141 6.416955
2010-04-28 07:19:19 51°16.224 2°56.751 11.3114 3.470377 30.171059 6.312483
2010-04-28 07:19:23 51°16.229 2°56.771 11.3057 3.471009 30.171989 6.242835
2010-04-28 07:19:28 51°16.235 2°56.795 11.3137 3.473961 30.200456 6.208011
2010-04-28 07:19:34 51°16.243 2°56.824 11.3013 3.465738 30.125682 6.103539
2010-04-28 07:19:39 51°16.249 2°56.845 11.3084 3.465738 30.125682 6.103539
2010-04-28 07:19:43 51°16.254 2°56.862 11.2946 3.473012 30.201655 6.173187
2010-04-28 07:19:48 51°16.261 2°56.885 11.3056 3.472696 30.205076 6.242835
2010-04-28 07:19:54 51°16.269 2°56.912 11.3103 3.470483 30.18889 6.312483
2010-04-28 07:19:59 51°16.275 2°56.935 11.3062 3.470061 30.192587 6.382131
2010-04-28 07:20:03 51°16.28 2°56.953 11.2977 3.464579 30.141619 6.556251
2010-04-28 07:20:08 51°16.286 2°56.976 11.2909 3.464579 30.141619 6.556251
2010-04-28 07:20:14 51°16.292 2°57.003 11.3053 3.470694 30.207113 6.591076
2010-04-28 07:20:19 51°16.297 2°57.025 11.2944 3.46479 30.153999 6.695548
2010-04-28 07:20:23 51°16.301 2°57.043 11.3173 3.456462 30.076192 6.765196
2010-04-28 07:20:27 51°16.305 2°57.061 11.3076 3.466582 30.174538 6.80002
2010-04-28 07:20:34 51°16.311 2°57.093 11.2941 3.46848 30.192862 6.834844
2010-04-28 07:20:39 51°16.315 2°57.116 11.301 3.46848 30.192862 6.834844
2010-04-28 07:20:43 51°16.319 2°57.134 11.2945 3.468585 30.191937 6.834844
2010-04-28 07:20:48 51°16.324 2°57.157 11.2925 3.468585 30.196471 6.834844
2010-04-28 07:20:53 51°16.329 2°57.179 11.3055 3.464896 30.162781 6.765196
2010-04-28 07:20:59 51°16.335 2°57.207 11.3042 3.46964 30.209894 6.695548
2010-04-28 07:21:03 51°16.339 2°57.224 11.3023 3.46342 30.147882 6.660724
2010-04-28 07:21:08 51°16.345 2°57.247 11.2981 3.46342 30.147882 6.660724
2010-04-28 07:21:14 51°16.355 2°57.271 11.2968 3.458676 30.104018 6.591076
2010-04-28 07:21:19 51°16.362 2°57.293 11.3112 3.459308 30.11271 6.765196
2010-04-28 07:21:23 51°16.371 2°57.307 11.3029 3.456884 30.090591 6.660724
2010-04-28 07:21:29 51°16.381 2°57.332 11.3093 3.469007 30.209618 6.660724
2010-04-28 07:21:34 51°16.392 2°57.35 11.3073 3.469745 30.214802 6.486603
2010-04-28 07:21:39 51°16.401 2°57.369 11.3044 3.469745 30.214802 6.486603
2010-04-28 07:21:43 51°16.41 2°57.383 11.3038 3.469956 30.215542 6.347307
2010-04-28 07:21:48 51°16.421 2°57.401 11.305 3.469112 30.210637 6.208011
2010-04-28 07:21:54 51°16.435 2°57.422 11.3046 3.462893 30.151203 6.103539
2010-04-28 07:21:59 51°16.446 2°57.44 11.3099 3.466266 30.182492 6.033891
2010-04-28 07:22:03 51°16.455 2°57.454 11.3042 3.466266 30.182492 6.033891
2010-04-28 07:22:08 51°16.467 2°57.471 11.2986 3.469429 30.212395 5.929418
2010-04-28 07:22:14 51°16.481 2°57.492 11.3018 3.46964 30.215081 5.824946
2010-04-28 07:22:19 51°16.493 2°57.51 11.3109 3.468691 30.206563 5.720474
2010-04-28 07:22:23 51°16.502 2°57.524 11.3085 3.466477 30.185825 5.650826
2010-04-28 07:22:28 51°16.513 2°57.542 11.3022 3.468164 30.203416 5.68565
2010-04-28 07:22:34 51°16.527 2°57.564 11.3079 3.467531 30.196008 5.68565
2010-04-28 07:22:39 51°16.538 2°57.583 11.3076 3.467531 30.196008 5.68565
2010-04-28 07:22:43 51°16.547 2°57.599 11.2994 3.468375 30.204156 5.720474
2010-04-28 07:22:48 51°16.557 2°57.618 11.2984 3.467637 30.198323 5.755298
2010-04-28 07:22:54 51°16.571 2°57.641 11.289 3.467742 30.19999 5.790122
2010-04-28 07:22:59 51°16.582 2°57.66 11.2878 3.468585 30.206193 5.824946
2010-04-28 07:23:03 51°16.591 2°57.675 11.2981 3.468902 30.2086 5.790122
2010-04-28 07:23:08 51°16.603 2°57.694 11.2896 3.468902 30.2086 5.790122
2010-04-28 07:23:13 51°16.614 2°57.712 11.284 3.468585 30.204896 5.824946
2010-04-28 07:23:19 51°16.629 2°57.734 11.2853 3.468691 30.208508 5.824946
2010-04-28 07:23:23 51°16.638 2°57.749 11.2922 3.461628 30.14222 5.999067
2010-04-28 07:23:28 51°16.65 2°57.767 11.2814 3.466266 30.188324 6.208011
2010-04-28 07:23:34 51°16.665 2°57.788 11.287 3.466793 30.197954 6.382131
2010-04-28 07:23:39 51°16.676 2°57.807 11.2888 3.466793 30.197954 6.382131
2010-04-28 07:23:43 51°16.686 2°57.822 11.2874 3.464685 30.18147 6.521427
2010-04-28 07:23:49 51°16.699 2°57.845 11.2848 3.463947 30.176283 6.695548
2010-04-28 07:23:54 51°16.711 2°57.864 11.2927 3.467321 30.210183 6.765196
2010-04-28 07:23:54 51°16.711 2°57.864 11.2927 3.467321 30.210183 6.765196
2010-04-28 07:24:05 51°16.736 2°57.908 11.2822 3.464369 30.18295 6.765196
2010-04-28 07:24:05 51°16.736 2°57.908 11.2822 3.464369 30.18295 6.765196
2010-04-28 07:24:15 51°16.758 2°57.947 11.2744 3.46226 30.164518 6.730372
2010-04-28 07:24:15 51°16.758 2°57.947 11.2744 3.46226 30.164518 6.730372
2010-04-28 07:24:29 51°16.789 2°58.002 11.2658 3.463525 30.177392 6.765196
2010-04-28 07:24:34 51°16.801 2°58.021 11.2675 3.461628 30.160348 6.80002
2010-04-28 07:24:34 51°16.801 2°58.021 11.2675 3.461628 30.160348 6.80002
2010-04-28 07:24:43 51°16.822 2°58.055 11.2686 3.464263 30.185822 6.730372
2010-04-28 07:24:48 51°16.833 2°58.074 11.2685 3.462577 30.170815 6.730372
2010-04-28 07:24:54 51°16.848 2°58.097 11.2623 3.461206 30.161456 6.660724
2010-04-28 07:24:59 51°16.859 2°58.116 11.2625 3.464264 30.193605 6.695548
2010-04-28 07:24:59 51°16.859 2°58.116 11.2625 3.464264 30.193605 6.695548
2010-04-28 07:25:09 51°16.882 2°58.154 11.2697 3.463104 30.190178 6.730372
2010-04-28 07:25:15 51°16.896 2°58.176 11.2548 3.463104 30.190178 6.730372
2010-04-28 07:25:19 51°16.905 2°58.192 11.2511 3.462261 30.181373 6.730372
2010-04-28 07:25:35 51°16.941 2°58.255 11.2469 3.456779 30.132904 6.660724
2010-04-28 07:25:39 51°16.95 2°58.271 11.2437 3.462682 30.190642 6.556251
2010-04-28 07:25:44 51°16.961 2°58.291 11.2428 3.462682 30.190642 6.556251
2010-04-28 07:25:50 51°16.974 2°58.316 11.2532 3.463737 30.202137 6.521427
2010-04-28 07:25:50 51°16.974 2°58.316 11.2532 3.463737 30.202137 6.521427
2010-04-28 07:26:03 51°17.004 2°58.367 11.2369 3.459942 30.173215 6.347307
2010-04-28 07:26:03 51°17.004 2°58.367 11.2369 3.459942 30.173215 6.347307
2010-04-28 07:26:17 51°17.035 2°58.423 11.2303 3.462472 30.202887 6.033891
2010-04-28 07:26:17 51°17.035 2°58.423 11.2303 3.462472 30.202887 6.033891
2010-04-28 07:26:34 51°17.067 2°58.496 11.2245 3.46205 30.205304 5.616002
2010-04-28 07:26:49 51°17.094 2°58.564 11.2216 3.459731 30.186755 5.720474
2010-04-28 07:26:54 51°17.104 2°58.584 11.2275 3.462472 30.215886 5.85977
2010-04-28 07:26:54 51°17.104 2°58.584 11.2275 3.462472 30.215886 5.85977
2010-04-28 07:27:03 51°17.123 2°58.621 11.2128 3.46321 30.226932 6.347307
2010-04-28 07:27:08 51°17.135 2°58.64 11.2098 3.46321 30.226932 6.347307
2010-04-28 07:27:14 51°17.15 2°58.661 11.2069 3.46321 30.228234 6.6259
2010-04-28 07:27:19 51°17.162 2°58.678 11.2087 3.463526 30.231946 6.80002
2010-04-28 07:27:19 51°17.162 2°58.678 11.2087 3.463526 30.231946 6.80002
2010-04-28 07:27:30 51°17.191 2°58.713 11.2105 3.45815 30.185741 7.14826
2010-04-28 07:27:30 51°17.191 2°58.713 11.2105 3.45815 30.185741 7.14826
2010-04-28 07:27:40 51°17.218 2°58.742 11.2075 3.460258 30.215914 7.635797
2010-04-28 07:27:46 51°17.235 2°58.759 11.2102 3.452984 30.145466 7.775093
2010-04-28 07:28:02 51°17.28 2°58.803 11.2109 3.453722 30.15391 8.123334
2010-04-28 07:28:07 51°17.293 2°58.817 11.2073 3.452563 30.143979 8.26263
2010-04-28 07:28:11 51°17.304 2°58.828 11.1912 3.455093 30.167832 8.43675
2010-04-28 07:28:16 51°17.318 2°58.841 11.1759 3.454039 30.156973 8.680519
2010-04-28 07:28:22 51°17.334 2°58.857 11.1765 3.457201 30.186952 8.924287
2010-04-28 07:28:27 51°17.347 2°58.87 11.1731 3.457201 30.186952 8.924287
2010-04-28 07:28:31 51°17.357 2°58.881 11.1631 3.458361 30.198184 9.133231
2010-04-28 07:28:36 51°17.368 2°58.895 11.1573 3.449295 30.113631 9.516296
2010-04-28 07:28:41 51°17.379 2°58.91 11.1655 3.453828 30.163376 9.516296
2010-04-28 07:28:47 51°17.388 2°58.929 11.1985 3.448346 30.112876 9.620768
2010-04-28 07:28:51 51°17.393 2°58.942 11.1516 3.45446 30.175355 10.073481
2010-04-28 07:28:57 51°17.397 2°58.962 11.1295 3.45446 30.175355 10.073481
2010-04-28 07:29:02 51°17.399 2°58.977 11.1522 3.453512 30.171363 10.038657
2010-04-28 07:29:07 51°17.399 2°58.991 11.1263 3.45056 30.144711 10.317249
2010-04-28 07:29:11 51°17.398 2°59.002 11.1293 3.451614 30.160126 10.526194
2010-04-28 07:29:17 51°17.396 2°59.017 11.1324 3.448979 30.136534 10.386897
2010-04-28 07:29:21 51°17.394 2°59.026 11.1099 3.450771 30.150003 10.526194
2010-04-28 07:29:27 51°17.39 2°59.038 11.1164 3.450771 30.150003 10.526194
2010-04-28 07:29:31 51°17.386 2°59.045 11.1008 3.452879 30.167185 11.01373
2010-04-28 07:29:36 51°17.382 2°59.054 11.1096 3.448452 30.135324 11.222675
2010-04-28 07:29:42 51°17.377 2°59.063 11.106 3.443076 30.08841 11.222675
2010-04-28 07:29:47 51°17.372 2°59.069 11.1085 3.445817 30.124722 11.153027
2010-04-28 07:29:51 51°17.368 2°59.074 11.1051 3.445817 30.124722 11.153027
2010-04-28 07:29:57 51°17.362 2°59.08 11.1 3.44297 30.101671 10.978906
2010-04-28 07:30:02 51°17.357 2°59.085 11.0945 3.441284 30.09311 10.804786
2010-04-28 07:30:07 51°17.352 2°59.089 11.0924 3.438121 30.06958 10.735138
2010-04-28 07:30:11 51°17.348 2°59.092 11.0877 3.440441 30.097274 10.595842
2010-04-28 07:30:17 51°17.342 2°59.096 11.0859 3.437805 30.076903 10.386897
2010-04-28 07:30:22 51°17.337 2°59.1 11.086 3.441389 30.113633 10.247601
2010-04-28 07:30:27 51°17.332 2°59.103 11.0881 3.441389 30.113633 10.247601
2010-04-28 07:30:31 51°17.328 2°59.105 11.0853 3.4416 30.11763 10.143129
2010-04-28 07:30:37 51°17.323 2°59.109 11.0872 3.433694 30.043505 10.073481
2010-04-28 07:30:41 51°17.319 2°59.111 11.0828 3.440124 30.109161 10.003833
2010-04-28 07:30:47 51°17.313 2°59.113 11.0808 3.438649 30.098087 10.003833
2010-04-28 07:30:51 51°17.31 2°59.115 11.0746 3.440546 30.120413 9.969009
2010-04-28 07:30:57 51°17.304 2°59.117 11.0748 3.440546 30.120413 9.969009
2010-04-28 07:31:02 51°17.299 2°59.118 11.0739 3.432324 30.043839 10.003833
2010-04-28 07:31:07 51°17.294 2°59.119 11.0697 3.439598 30.115107 9.899361
2010-04-28 07:31:11 51°17.29 2°59.119 11.0706 3.435803 30.07891 9.829713
2010-04-28 07:31:17 51°17.283 2°59.12 11.074 3.434432 30.066255 9.864537
2010-04-28 07:31:21 51°17.279 2°59.12 11.0673 3.435065 30.074996 9.934185
2010-04-28 07:31:27 51°17.274 2°59.12 11.0759 3.435065 30.074996 9.934185
2010-04-28 07:31:31 51°17.269 2°59.119 11.0674 3.435276 30.080295 10.108305
2010-04-28 07:31:37 51°17.263 2°59.119 11.0707 3.44023 30.130367 10.386897
2010-04-28 07:31:42 51°17.258 2°59.118 11.0689 3.435486 30.085595 10.630666
2010-04-28 07:31:47 51°17.253 2°59.118 11.0698 3.438649 30.118264 10.769962
2010-04-28 07:31:51 51°17.249 2°59.117 11.0666 3.430005 30.035612 10.769962
2010-04-28 07:31:56 51°17.243 2°59.116 11.064 3.430005 30.035612 10.769962
2010-04-28 07:32:02 51°17.237 2°59.115 11.0634 3.439387 30.129342 10.735138
2010-04-28 07:32:07 51°17.232 2°59.113 11.0698 3.437173 30.109789 10.49137
2010-04-28 07:32:11 51°17.228 2°59.112 11.0683 3.435908 30.096849 10.108305
2010-04-28 07:32:17 51°17.222 2°59.109 11.0663 3.437595 30.113886 9.899361
2010-04-28 07:32:22 51°17.216 2°59.107 11.0739 3.436962 30.107741 9.690416
2010-04-28 07:32:27 51°17.211 2°59.104 11.0759 3.436962 30.107741 9.690416
2010-04-28 07:32:31 51°17.207 2°59.102 11.0784 3.436962 30.108392 9.481472
2010-04-28 07:32:37 51°17.201 2°59.098 11.0842 3.429583 30.038014 9.377
2010-04-28 07:32:41 51°17.196 2°59.096 11.0897 3.438438 30.127293 9.411824
2010-04-28 07:32:47 51°17.19 2°59.091 11.0948 3.438755 30.12841 9.516296
2010-04-28 07:32:51 51°17.186 2°59.088 11.0998 3.438227 30.124592 9.585944
2010-04-28 07:32:57 51°17.18 2°59.083 11.1073 3.438227 30.124592 9.585944
2010-04-28 07:33:02 51°17.175 2°59.079 11.115 3.438965 30.129807 9.655592
2010-04-28 07:33:07 51°17.17 2°59.074 11.1171 3.432535 30.066033 9.690416
2010-04-28 07:33:11 51°17.166 2°59.071 11.1286 3.431059 30.048448 9.690416
2010-04-28 07:33:17 51°17.161 2°59.065 11.1357 3.433484 30.069395 9.655592
2010-04-28 07:33:21 51°17.157 2°59.061 11.1388 3.440968 30.137535 9.585944
2010-04-28 07:33:27 51°17.152 2°59.055 11.1422 3.440968 30.137535 9.585944
2010-04-28 07:33:31 51°17.148 2°59.051 11.1506 3.441917 30.144144 9.411824
2010-04-28 07:33:37 51°17.143 2°59.044 11.1547 3.440441 30.123947 9.272528
2010-04-28 07:33:41 51°17.14 2°59.04 11.1598 3.442127 30.133162 8.889463
2010-04-28 07:33:47 51°17.135 2°59.033 11.1637 3.444341 30.151398 8.715343
2010-04-28 07:33:51 51°17.132 2°59.029 11.1718 3.444341 30.151398 8.715343
2010-04-28 07:33:57 51°17.127 2°59.022 11.1741 3.445606 30.157164 8.506398
2010-04-28 07:34:02 51°17.123 2°59.016 11.1801 3.444025 30.135305 8.227806
2010-04-28 07:34:07 51°17.12 2°59.01 11.1819 3.443708 30.12638 8.018862
2010-04-28 07:34:11 51°17.117 2°59.005 11.183 3.446976 30.152881 7.844741
2010-04-28 07:34:16 51°17.113 2°58.999 11.1842 3.447187 30.15037 7.705445
2010-04-28 07:34:22 51°17.109 2°58.991 11.1897 3.447503 30.148232 7.322381
2010-04-28 07:34:27 51°17.105 2°58.985 11.1898 3.447503 30.148232 7.322381
2010-04-28 07:34:31 51°17.103 2°58.98 11.1907 3.447292 30.140984 7.287557
2010-04-28 07:34:37 51°17.098 2°58.972 11.1945 3.444446 30.109485 7.043788
2010-04-28 07:34:42 51°17.095 2°58.965 11.1978 3.445816 30.118224 6.869668
2010-04-28 07:34:47 51°17.092 2°58.959 11.1992 3.448979 30.145633 6.695548
2010-04-28 07:34:51 51°17.089 2°58.953 11.1986 3.443181 30.086837 6.556251
2010-04-28 07:34:56 51°17.086 2°58.947 11.2032 3.443181 30.086837 6.556251
2010-04-28 07:35:02 51°17.081 2°58.939 11.2044 3.449928 30.148979 6.347307
2010-04-28 07:35:07 51°17.078 2°58.932 11.2068 3.451298 30.159662 6.173187
2010-04-28 07:35:11 51°17.076 2°58.927 11.2094 3.453196 30.176754 6.103539
2010-04-28 07:35:16 51°17.072 2°58.92 11.2097 3.4494 30.137372 6.033891
2010-04-28 07:35:22 51°17.068 2°58.913 11.2089 3.449717 30.138488 5.894594
2010-04-28 07:35:27 51°17.065 2°58.906 11.2124 3.449717 30.138488 5.894594
2010-04-28 07:35:31 51°17.063 2°58.901 11.2157 3.45425 30.180466 5.824946
2010-04-28 07:35:37 51°17.058 2°58.893 11.2145 3.45193 30.15539 5.720474
2010-04-28 07:35:42 51°17.055 2°58.887 11.2175 3.452563 30.160219 5.581178
2010-04-28 07:35:47 51°17.052 2°58.88 11.2148 3.450244 30.135151 5.51153
2010-04-28 07:35:51 51°17.049 2°58.875 11.2165 3.450349 30.133575 5.267761
2010-04-28 07:35:57 51°17.045 2°58.867 11.2151 3.450349 30.133575 5.267761
2010-04-28 07:36:02 51°17.042 2°58.861 11.2194 3.452563 30.153721 5.232937
2010-04-28 07:36:07 51°17.038 2°58.855 11.2169 3.45425 30.169411 5.267761
2010-04-28 07:36:11 51°17.036 2°58.85 11.2222 3.45193 30.146944 5.093641
2010-04-28 07:36:17 51°17.032 2°58.842 11.2177 3.455198 30.176002 4.989169
2010-04-28 07:36:22 51°17.029 2°58.836 11.222 3.457096 30.193735 4.919521
2010-04-28 07:36:27 51°17.026 2°58.829 11.2198 3.457096 30.193735 4.919521
2010-04-28 07:36:31 51°17.023 2°58.824 11.2192 3.451614 30.139335 4.745401
2010-04-28 07:36:36 51°17.02 2°58.818 11.2204 3.452668 30.149545 4.675753
2010-04-28 07:36:42 51°17.016 2°58.81 11.2244 3.452774 30.149917 4.675753
2010-04-28 07:36:47 51°17.013 2°58.804 11.2263 3.452457 30.145555 4.640929
2010-04-28 07:36:51 51°17.01 2°58.799 11.2177 3.454671 30.166997 4.606104
2010-04-28 07:36:56 51°17.007 2°58.793 11.2227 3.454671 30.166997 4.606104
2010-04-28 07:37:02 51°17.003 2°58.785 11.2231 3.456463 30.183706 4.57128
2010-04-28 07:37:07 51°16.999 2°58.779 11.2194 3.453722 30.157158 4.536456
2010-04-28 07:37:11 51°16.997 2°58.773 11.2182 3.449506 30.11697 4.431984
2010-04-28 07:37:16 51°16.994 2°58.767 11.2178 3.45678 30.185469 4.431984
2010-04-28 07:37:22 51°16.99 2°58.76 11.2178 3.45678 30.185469 4.431984
2010-04-28 07:37:27 51°16.987 2°58.753 11.2172 3.45446 30.161706 4.362336
2010-04-28 07:37:31 51°16.984 2°58.748 11.2202 3.455198 30.168853 4.327512
2010-04-28 07:37:36 51°16.981 2°58.742 11.2164 3.45056 30.126529 4.327512
2010-04-28 07:37:41 51°16.978 2°58.736 11.2193 3.456569 30.182126 4.257864
2010-04-28 07:37:47 51°16.974 2°58.728 11.215 3.457939 30.196051 4.22304
2010-04-28 07:37:51 51°16.971 2°58.723 11.2174 3.455725 30.175908 4.188216
2010-04-28 07:37:57 51°16.967 2°58.716 11.2185 3.455725 30.175908 4.188216
2010-04-28 07:38:02 51°16.964 2°58.71 11.2177 3.456885 30.18649 4.22304
2010-04-28 07:38:07 51°16.961 2°58.703 11.2182 3.455409 30.172845 4.118568
2010-04-28 07:38:11 51°16.958 2°58.698 11.2161 3.450981 30.130613 4.153392
2010-04-28 07:38:17 51°16.954 2°58.691 11.222 3.450665 30.126901 4.118568
2010-04-28 07:38:22 51°16.951 2°58.685 11.221 3.453933 30.159849 4.083744
2010-04-28 07:38:27 51°16.948 2°58.678 11.2178 3.453933 30.159849 4.083744
2010-04-28 07:38:31 51°16.945 2°58.673 11.2152 3.453828 30.159478 4.04892
2010-04-28 07:38:37 51°16.941 2°58.666 11.2183 3.45678 30.18872 4.014096
2010-04-28 07:38:42 51°16.938 2°58.66 11.2137 3.452984 30.15066 4.04892
2010-04-28 07:38:47 51°16.935 2°58.654 11.2148 3.455093 30.171081 4.118568
2010-04-28 07:38:51 51°16.932 2°58.649 11.2122 3.45309 30.15298 4.04892
2010-04-28 07:38:56 51°16.929 2°58.643 11.2102 3.45309 30.15298 4.04892
2010-04-28 07:39:01 51°16.926 2°58.637 11.2165 3.456358 30.182685 3.979271
2010-04-28 07:39:07 51°16.922 2°58.629 11.2129 3.451614 30.136738 3.979271
2010-04-28 07:39:11 51°16.919 2°58.624 11.217 3.456885 30.189091 3.909623
2010-04-28 07:39:16 51°16.916 2°58.618 11.2119 3.453617 30.159385 3.909623
2010-04-28 07:39:22 51°16.911 2°58.611 11.2108 3.456674 30.18965 3.909623
2010-04-28 07:39:27 51°16.908 2°58.605 11.2127 3.456674 30.18965 3.909623
2010-04-28 07:39:31 51°16.906 2°58.6 11.21 3.453933 30.163098 3.944447
2010-04-28 07:39:37 51°16.902 2°58.592 11.2162 3.45193 30.144996 3.979271
2010-04-28 07:39:41 51°16.899 2°58.587 11.2131 3.450349 30.12968 4.014096
2010-04-28 07:39:47 51°16.895 2°58.58 11.2136 3.456147 30.185844 4.014096
2010-04-28 07:39:51 51°16.892 2°58.575 11.2064 3.454987 30.17331 4.014096
2010-04-28 07:39:57 51°16.888 2°58.567 11.2108 3.454987 30.17331 4.014096
2010-04-28 07:40:01 51°16.886 2°58.563 11.2035 3.449189 30.118449 4.153392
2010-04-28 07:40:07 51°16.882 2°58.555 11.2037 3.456358 30.188537 4.22304
2010-04-28 07:40:11 51°16.879 2°58.55 11.203 3.451298 30.140168 4.292688
2010-04-28 07:40:16 51°16.876 2°58.544 11.2063 3.451719 30.144252 4.292688
2010-04-28 07:40:22 51°16.872 2°58.536 11.2039 3.456042 30.186123 4.362336
2010-04-28 07:40:27 51°16.868 2°58.53 11.2062 3.456042 30.186123 4.362336
2010-04-28 07:40:31 51°16.866 2°58.525 11.2066 3.453406 30.161891 4.39716
2010-04-28 07:40:37 51°16.862 2°58.518 11.2019 3.455409 30.182596 4.536456
2010-04-28 07:40:42 51°16.859 2°58.512 11.2013 3.455409 30.182596 4.501632
2010-04-28 07:40:47 51°16.855 2°58.506 11.1973 3.452457 30.155948 4.536456
2010-04-28 07:40:51 51°16.853 2°58.501 11.1997 3.455409 30.186499 4.431984
2010-04-28 07:40:57 51°16.849 2°58.493 11.2011 3.455409 30.186499 4.431984
2010-04-28 07:41:02 51°16.846 2°58.487 11.202 3.455304 30.185478 4.501632
2010-04-28 07:41:07 51°16.842 2°58.481 11.1975 3.450244 30.137099 4.606104
2010-04-28 07:41:11 51°16.84 2°58.476 11.1947 3.454882 30.182042 4.606104
2010-04-28 07:41:16 51°16.836 2°58.47 11.1984 3.451087 30.147869 4.675753
2010-04-28 07:41:22 51°16.833 2°58.462 11.1927 3.448768 30.124749 4.710577
2010-04-28 07:41:27 51°16.829 2°58.456 11.1961 3.448768 30.124749 4.710577
2010-04-28 07:41:31 51°16.826 2°58.451 11.2016 3.448662 30.125675 4.745401
2010-04-28 07:41:37 51°16.822 2°58.443 11.1975 3.452141 30.160033 4.745401
2010-04-28 07:41:42 51°16.819 2°58.437 11.1964 3.450876 30.147125 4.745401
2010-04-28 07:41:47 51°16.816 2°58.431 11.197 3.454566 30.18288 4.745401
2010-04-28 07:41:51 51°16.813 2°58.426 11.1959 3.454461 30.18316 4.780225
2010-04-28 07:41:57 51°16.809 2°58.418 11.1974 3.454461 30.18316 4.780225
2010-04-28 07:42:02 51°16.806 2°58.412 11.1909 3.454355 30.182789 4.745401
2010-04-28 07:42:07 51°16.802 2°58.406 11.1935 3.453828 30.178331 4.675753
2010-04-28 07:42:11 51°16.8 2°58.401 11.1932 3.453406 30.173593 4.745401
2010-04-28 07:42:17 51°16.796 2°58.393 11.1992 3.453933 30.178702 4.675753
2010-04-28 07:42:21 51°16.793 2°58.388 11.1891 3.454039 30.180374 4.745401
2010-04-28 07:42:27 51°16.789 2°58.38 11.1913 3.454039 30.180374 4.745401
2010-04-28 07:42:31 51°16.787 2°58.375 11.1849 3.453512 30.173965 4.745401
2010-04-28 07:42:36 51°16.783 2°58.369 11.1892 3.453828 30.17768 4.640929
2010-04-28 07:42:41 51°16.78 2°58.362 11.1823 3.446554 30.109791 4.640929
2010-04-28 07:42:47 51°16.776 2°58.355 11.188 3.45056 30.149259 4.745401
2010-04-28 07:42:51 51°16.773 2°58.35 11.1797 3.448557 30.1292 4.745401
2010-04-28 07:42:56 51°16.77 2°58.344 11.1795 3.448557 30.1292 4.745401
2010-04-28 07:43:02 51°16.766 2°58.336 11.1743 3.453196 30.174152 4.815049
2010-04-28 07:43:07 51°16.763 2°58.33 11.1782 3.452879 30.174339 4.815049
2010-04-28 07:43:11 51°16.76 2°58.325 11.1794 3.452458 30.172203 4.954345
2010-04-28 07:43:17 51°16.756 2°58.317 11.1734 3.44919 30.141827 5.023993
2010-04-28 07:43:22 51°16.752 2°58.311 11.1709 3.449506 30.146192 5.058817
2010-04-28 07:43:27 51°16.749 2°58.305 11.1728 3.449506 30.146192 5.058817
2010-04-28 07:43:31 51°16.746 2°58.299 11.1697 3.445711 30.110058 5.128465
2010-04-28 07:43:36 51°16.743 2°58.293 11.1674 3.444657 30.102438 5.163289
2010-04-28 07:43:42 51°16.739 2°58.286 11.1683 3.448557 30.142196 5.232937
2010-04-28 07:43:47 51°16.736 2°58.279 11.1633 3.451298 30.168769 5.232937
2010-04-28 07:43:51 51°16.733 2°58.274 11.1643 3.446238 30.119713 5.232937
2010-04-28 07:43:56 51°16.729 2°58.268 11.1655 3.446238 30.119713 5.232937
2010-04-28 07:44:02 51°16.725 2°58.261 11.1626 3.449401 30.151672 5.372234
2010-04-28 07:44:07 51°16.722 2°58.254 11.1622 3.444341 30.105866 5.476706
2010-04-28 07:44:11 51°16.719 2°58.249 11.1647 3.450244 30.162451 5.51153
2010-04-28 07:44:17 51°16.715 2°58.242 11.1562 3.442443 30.090068 5.650826
2010-04-28 07:44:21 51°16.713 2°58.237 11.155 3.449506 30.160501 5.650826
2010-04-28 07:44:27 51°16.709 2°58.229 11.1603 3.449506 30.160501 5.650826
2010-04-28 07:44:31 51°16.706 2°58.224 11.1631 3.444762 30.1158 5.68565
2010-04-28 07:44:37 51°16.702 2°58.217 11.1573 3.448768 30.154646 5.755298
2010-04-28 07:44:41 51°16.699 2°58.212 11.1575 3.443814 30.10725 5.755298
2010-04-28 07:44:47 51°16.695 2°58.204 11.1575 3.444235 30.113288 5.790122
2010-04-28 07:44:51 51°16.692 2°58.199 11.1575 3.441389 30.086988 5.894594
2010-04-28 07:44:56 51°16.689 2°58.193 11.1573 3.441389 30.086988 5.894594
2010-04-28 07:45:02 51°16.685 2°58.185 11.1556 3.445922 30.131595 6.033891
2010-04-28 07:45:07 51°16.681 2°58.179 11.1571 3.44782 30.150649 5.894594
2010-04-28 07:45:11 51°16.679 2°58.174 11.1591 3.447609 30.148604 5.929418
2010-04-28 07:45:17 51°16.675 2°58.167 11.1579 3.440757 30.082154 5.929418
2010-04-28 07:45:22 51°16.671 2°58.161 11.1576 3.441284 30.087914 5.929418
2010-04-28 07:45:27 51°16.668 2°58.154 11.1544 3.441284 30.087914 5.929418
2010-04-28 07:45:31 51°16.665 2°58.149 11.1559 3.447082 30.144793 5.929418
2010-04-28 07:45:37 51°16.661 2°58.142 11.1546 3.440546 30.082706 5.894594
2010-04-28 07:45:42 51°16.658 2°58.135 11.1526 3.442443 30.099808 5.894594
2010-04-28 07:45:47 51°16.654 2°58.129 11.1552 3.445079 30.124716 5.85977
2010-04-28 07:45:51 51°16.652 2°58.124 11.1565 3.441494 30.091257 5.85977
2010-04-28 07:45:56 51°16.649 2°58.118 11.1541 3.441494 30.091257 5.85977
2010-04-28 07:46:02 51°16.645 2°58.11 11.1521 3.444552 30.120905 5.964243
2010-04-28 07:46:07 51°16.641 2°58.104 11.1521 3.446871 30.143399 5.85977
2010-04-28 07:46:11 51°16.639 2°58.099 11.1568 3.448136 30.15632 5.85977
2010-04-28 07:46:16 51°16.635 2°58.092 11.1563 3.44782 30.153252 5.85977
2010-04-28 07:46:21 51°16.632 2°58.086 11.1561 3.44782 30.153903 5.720474
2010-04-28 07:46:27 51°16.628 2°58.078 11.1577 3.44782 30.153903 5.720474
2010-04-28 07:46:31 51°16.626 2°58.072 11.1588 3.443708 30.115325 5.755298
2010-04-28 07:46:36 51°16.623 2°58.066 11.1582 3.444657 30.124528 5.650826
2010-04-28 07:46:41 51°16.62 2°58.059 11.1629 3.447714 30.153531 5.68565
2010-04-28 07:46:47 51°16.617 2°58.051 11.1673 3.44529 30.130663 5.616002
2010-04-28 07:46:51 51°16.614 2°58.046 11.166 3.447609 30.152508 5.616002
2010-04-28 07:46:57 51°16.611 2°58.037 11.1657 3.447609 30.152508 5.616002
2010-04-28 07:47:02 51°16.608 2°58.03 11.1723 3.441495 30.092556 5.650826
2010-04-28 07:47:07 51°16.605 2°58.023 11.1682 3.445079 30.127967 5.720474
2010-04-28 07:47:11 51°16.603 2°58.018 11.1681 3.440862 30.085773 5.581178
2010-04-28 07:47:17 51°16.6 2°58.009 11.1702 3.441916 30.095346 5.581178
2010-04-28 07:47:21 51°16.598 2°58.004 11.1705 3.444868 30.122022 5.581178
2010-04-28 07:47:27 51°16.595 2°57.995 11.1699 3.444868 30.122022 5.581178
2010-04-28 07:47:31 51°16.593 2°57.99 11.1701 3.44413 30.112916 5.616002
2010-04-28 07:47:37 51°16.59 2°57.981 11.1704 3.445922 30.128994 5.68565
2010-04-28 07:47:42 51°16.587 2°57.974 11.1695 3.444341 30.113011 5.68565
2010-04-28 07:47:47 51°16.584 2°57.967 11.1737 3.442865 30.097402 5.720474
2010-04-28 07:47:51 51°16.582 2°57.961 11.1751 3.448979 30.155389 5.790122
2010-04-28 07:47:57 51°16.579 2°57.953 11.1762 3.448979 30.155389 5.790122
2010-04-28 07:48:02 51°16.576 2°57.946 11.1766 3.443286 30.099542 5.824946
2010-04-28 07:48:07 51°16.573 2°57.939 11.1795 3.448452 30.150278 5.790122
2010-04-28 07:48:11 51°16.571 2°57.933 11.1813 3.449928 30.163289 5.824946
2010-04-28 07:48:16 51°16.569 2°57.926 11.1787 3.449822 30.163568 5.85977
2010-04-28 07:48:22 51°16.566 2°57.917 11.1837 3.448241 30.146932 5.894594
2010-04-28 07:48:27 51°16.563 2°57.91 11.185 3.448241 30.146932 5.894594
2010-04-28 07:48:31 51°16.561 2°57.904 11.1876 3.450033 30.16366 5.824946
2010-04-28 07:48:36 51°16.559 2°57.897 11.187 3.450033 30.161708 5.755298
2010-04-28 07:48:42 51°16.556 2°57.888 11.1879 3.449506 30.155296 5.68565
2010-04-28 07:48:47 51°16.554 2°57.881 11.1924 3.446238 30.122962 5.616002
2010-04-28 07:48:51 51°16.552 2°57.875 11.1932 3.447398 30.132254 5.68565
2010-04-28 07:48:57 51°16.55 2°57.866 11.1991 3.447398 30.132254 5.68565
2010-04-28 07:49:02 51°16.548 2°57.859 11.1991 3.450666 30.163937 5.546354
2010-04-28 07:49:07 51°16.546 2°57.852 11.1992 3.45056 30.160313 5.546354
2010-04-28 07:49:11 51°16.545 2°57.846 11.2018 3.4455 30.109963 5.51153
2010-04-28 07:49:17 51°16.543 2°57.837 11.2006 3.445606 30.109686 5.33741
2010-04-28 07:49:22 51°16.541 2°57.829 11.2013 3.450876 30.158176 5.232937
2010-04-28 07:49:27 51°16.54 2°57.822 11.2042 3.450876 30.158176 5.232937
2010-04-28 07:49:31 51°16.539 2°57.816 11.2042 3.445922 30.109504 5.33741
2010-04-28 07:49:36 51°16.537 2°57.809 11.2068 3.448557 30.132447 5.163289
2010-04-28 07:49:42 51°16.536 2°57.8 11.2075 3.449295 30.13765 5.128465
2010-04-28 07:49:47 51°16.534 2°57.792 11.2093 3.45172 30.159848 5.058817
2010-04-28 07:49:51 51°16.533 2°57.786 11.2056 3.45172 30.159848 5.058817
2010-04-28 07:49:56 51°16.532 2°57.779 11.2048 3.452141 30.163284 4.989169
2010-04-28 07:50:02 51°16.53 2°57.77 11.2072 3.451509 30.155854 4.849873
2010-04-28 07:50:06 51°16.529 2°57.764 11.2087 3.452879 30.168485 4.989169
2010-04-28 07:50:11 51°16.528 2°57.757 11.2108 3.448452 30.123632 4.989169
2010-04-28 07:50:16 51°16.527 2°57.749 11.2141 3.449084 30.128462 5.058817
2010-04-28 07:50:22 51°16.525 2°57.74 11.214 3.450982 30.145548 5.093641
2010-04-28 07:50:27 51°16.524 2°57.733 11.2194 3.450982 30.145548 5.093641
2010-04-28 07:50:31 51°16.523 2°57.727 11.2169 3.451825 30.153069 5.093641
2010-04-28 07:50:36 51°16.522 2°57.72 11.2205 3.453617 30.171084 5.093641
2010-04-28 07:50:41 51°16.521 2°57.713 11.22 3.453723 30.173406 5.128465
2010-04-28 07:50:47 51°16.52 2°57.704 11.2242 3.453933 30.173499 5.058817
2010-04-28 07:50:51 51°16.518 2°57.698 11.2266 3.451087 30.145919 5.058817
2010-04-28 07:50:56 51°16.518 2°57.691 11.2301 3.451087 30.145919 5.058817
2010-04-28 07:51:01 51°16.516 2°57.684 11.2296 3.454355 30.176284 5.058817
2010-04-28 07:51:07 51°16.515 2°57.675 11.2303 3.454355 30.173033 4.954345
2010-04-28 07:51:11 51°16.514 2°57.669 11.2306 3.454671 30.175447 4.884697
2010-04-28 07:51:16 51°16.513 2°57.662 11.2315 3.454566 30.171825 4.849873
2010-04-28 07:51:22 51°16.511 2°57.652 11.2343 3.450244 30.129308 4.849873
2010-04-28 07:51:26 51°16.51 2°57.645 11.235 3.450244 30.129308 4.849873
2010-04-28 07:51:31 51°16.509 2°57.636 11.2334 3.455093 30.174331 4.780225
2010-04-28 07:51:36 51°16.508 2°57.628 11.2353 3.455198 30.173402 4.780225
2010-04-28 07:51:41 51°16.506 2°57.619 11.2387 3.455409 30.174144 4.710577
2010-04-28 07:51:47 51°16.504 2°57.608 11.2392 3.455831 30.176929 4.710577
2010-04-28 07:51:51 51°16.503 2°57.6 11.2429 3.455936 30.1773 4.745401
2010-04-28 07:51:56 51°16.502 2°57.59 11.2402 3.455936 30.1773 4.745401
2010-04-28 07:52:02 51°16.501 2°57.578 11.2408 3.456147 30.178042 4.780225
2010-04-28 07:52:06 51°16.5 2°57.57 11.2414 3.455936 30.1747 4.780225
2010-04-28 07:52:11 51°16.499 2°57.56 11.2443 3.456569 30.180176 4.780225
2010-04-28 07:52:16 51°16.498 2°57.549 11.2396 3.456358 30.178134 4.710577
2010-04-28 07:52:22 51°16.497 2°57.536 11.2477 3.456569 30.178227 4.675753
2010-04-28 07:52:27 51°16.497 2°57.525 11.2458 3.456569 30.178227 4.675753
2010-04-28 07:52:31 51°16.497 2°57.516 11.2456 3.456779 30.179619 4.640929
2010-04-28 07:52:36 51°16.497 2°57.504 11.2452 3.457201 30.182402 4.710577
2010-04-28 07:52:42 51°16.497 2°57.489 11.2458 3.457412 30.182494 4.675753
2010-04-28 07:52:47 51°16.498 2°57.475 11.246 3.457096 30.180082 4.606104
2010-04-28 07:52:51 51°16.5 2°57.464 11.2452 3.457623 30.183236 4.710577
2010-04-28 07:52:56 51°16.502 2°57.449 11.2448 3.457623 30.183236 4.710577
2010-04-28 07:53:01 51°16.504 2°57.434 11.2437 3.457623 30.182586 4.675753
2010-04-28 07:53:07 51°16.508 2°57.416 11.2479 3.457728 30.182308 4.675753
2010-04-28 07:53:11 51°16.511 2°57.403 11.2468 3.458044 30.18537 4.675753
2010-04-28 07:53:16 51°16.515 2°57.388 11.2467 3.458361 30.187782 4.745401
2010-04-28 07:53:21 51°16.519 2°57.372 11.246 3.45815 30.184441 4.815049
2010-04-28 07:53:27 51°16.526 2°57.354 11.2435 3.45815 30.184441 4.815049
2010-04-28 07:53:31 51°16.53 2°57.342 11.2419 3.458677 30.190194 4.884697
2010-04-28 07:53:36 51°16.536 2°57.327 11.2437 3.458255 30.185462 4.954345
2010-04-28 07:53:41 51°16.542 2°57.311 11.2255 3.458677 30.190194 5.058817
2010-04-28 07:53:47 51°16.549 2°57.294 11.2243 3.459099 30.193627 5.198113
2010-04-28 07:53:51 51°16.553 2°57.283 11.2289 3.459204 30.194648 5.267761
2010-04-28 07:53:56 51°16.559 2°57.27 11.2301 3.459204 30.194648 5.267761
2010-04-28 07:54:01 51°16.564 2°57.257 11.2326 3.459415 30.19539 5.372234
2010-04-28 07:54:07 51°16.571 2°57.244 11.2188 3.459731 30.198452 5.581178
2010-04-28 07:54:11 51°16.575 2°57.236 11.2185 3.459942 30.199843 6.138363
2010-04-28 07:54:16 51°16.58 2°57.226 11.224 3.46068 30.203737 7.217908
2010-04-28 07:54:22 51°16.587 2°57.216 11.2262 3.461734 30.215895 7.183084
2010-04-28 07:54:27 51°16.592 2°57.208 11.2281 3.461734 30.215895 7.183084
2010-04-28 07:54:31 51°16.596 2°57.202 11.2267 3.463105 30.231768 7.078612
2010-04-28 07:54:36 51°16.601 2°57.195 11.2267 3.463737 30.237893 6.97414
2010-04-28 07:54:42 51°16.607 2°57.188 11.2256 3.464053 30.240305 7.008964
2010-04-28 07:54:47 51°16.611 2°57.183 11.2325 3.46437 30.245321 7.252733
2010-04-28 07:54:51 51°16.615 2°57.179 11.2256 3.464791 30.25201 7.14826
2010-04-28 07:54:56 51°16.619 2°57.174 11.2253 3.464791 30.25201 7.14826
2010-04-28 07:55:02 51°16.625 2°57.169 11.2224 3.465424 30.258137 7.183084
2010-04-28 07:55:07 51°16.629 2°57.165 11.2278 3.465529 30.258506 7.426853
2010-04-28 07:55:11 51°16.632 2°57.162 11.2248 3.465424 30.256182 7.740269
2010-04-28 07:55:16 51°16.636 2°57.159 11.2206 3.465635 30.258876 8.018862
2010-04-28 07:55:21 51°16.639 2°57.156 11.2292 3.465635 30.258876 8.018862
2010-04-28 07:55:27 51°16.644 2°57.153 11.2252 3.465846 30.260918 8.123334
2010-04-28 07:55:31 51°16.647 2°57.151 11.2272 3.465951 30.262591 8.26263
2010-04-28 07:55:36 51°16.65 2°57.149 11.231 3.465951 30.261939 8.367102
2010-04-28 07:55:41 51°16.654 2°57.146 11.227 3.466056 30.264915 8.576047
2010-04-28 07:55:47 51°16.658 2°57.144 11.2272 3.466373 30.267979 8.819815
2010-04-28 07:55:51 51°16.66 2°57.143 11.2288 3.466056 30.264915 8.959111
2010-04-28 07:55:56 51°16.663 2°57.141 11.2273 3.466056 30.264915 8.959111
2010-04-28 07:56:01 51°16.666 2°57.14 11.2246 3.466162 30.266588 9.063583
2010-04-28 07:56:07 51°16.67 2°57.138 11.2261 3.467216 30.274845 9.098407
2010-04-28 07:56:11 51°16.672 2°57.137 11.2186 3.4669 30.271781 9.168055
2010-04-28 07:56:16 51°16.674 2°57.136 11.228 3.467111 30.27252 9.481472
2010-04-28 07:56:22 51°16.678 2°57.135 11.2328 3.467427 30.275584 9.72524
2010-04-28 07:56:26 51°16.68 2°57.134 11.2299 3.467427 30.275584 9.72524
2010-04-28 07:56:31 51°16.683 2°57.133 11.2285 3.467427 30.276235 9.969009
2010-04-28 07:56:36 51°16.686 2°57.132 11.2319 3.467954 30.281341 10.352073
2010-04-28 07:56:41 51°16.689 2°57.132 11.2294 3.467638 30.278278 10.66549
2010-04-28 07:56:47 51°16.694 2°57.131 11.2362 3.467743 30.279299 10.804786
2010-04-28 07:56:51 51°16.697 2°57.13 11.2321 3.467849 30.280972 10.909258
2010-04-28 07:56:56 51°16.701 2°57.129 11.2445 3.467849 30.280972 10.909258
2010-04-28 07:57:02 51°16.707 2°57.129 11.2357 3.467849 30.280972 10.944082
2010-04-28 07:57:07 51°16.712 2°57.13 11.236 3.467849 30.280972 10.978906
2010-04-28 07:57:11 51°16.716 2°57.131 11.2425 3.467638 30.277626 11.187851
2010-04-28 07:57:16 51°16.722 2°57.132 11.2446 3.467743 30.277995 11.361971
2010-04-28 07:57:22 51°16.729 2°57.135 11.2447 3.467743 30.27604 11.396795
2010-04-28 07:57:27 51°16.735 2°57.138 11.2435 3.467743 30.27604 11.396795
2010-04-28 07:57:31 51°16.74 2°57.141 11.2415 3.467954 30.279386 11.118203
2010-04-28 07:57:36 51°16.745 2°57.146 11.2494 3.468059 30.278451 11.01373
2010-04-28 07:57:41 51°16.751 2°57.151 11.254 3.468059 30.2778 10.944082
2010-04-28 07:57:47 51°16.758 2°57.158 11.2516 3.468165 30.276865 10.700314
2010-04-28 07:57:51 51°16.763 2°57.165 11.261 3.468059 30.275193 10.49137
2010-04-28 07:57:56 51°16.769 2°57.174 11.2411 3.468059 30.275193 10.49137
2010-04-28 07:58:01 51°16.774 2°57.184 11.2552 3.468376 30.276301 10.386897
2010-04-28 07:58:06 51°16.778 2°57.195 11.2591 3.468481 30.276018 10.143129
2010-04-28 07:58:11 51°16.782 2°57.207 11.2551 3.46827 30.273325 10.003833
2010-04-28 07:58:16 51°16.785 2°57.221 11.2551 3.468481 30.272761 9.481472
2010-04-28 07:58:21 51°16.787 2°57.235 11.2574 3.468692 30.270894 9.168055
2010-04-28 07:58:26 51°16.789 2°57.249 11.2606 3.468692 30.270894 9.168055
2010-04-28 07:58:31 51°16.79 2°57.264 11.2639 3.468586 30.26792 9.028759
2010-04-28 07:58:36 51°16.789 2°57.28 11.2662 3.468586 30.265966 8.959111
2010-04-28 07:58:41 51°16.788 2°57.295 11.2748 3.468902 30.267726 9.028759
2010-04-28 07:58:47 51°16.785 2°57.313 11.2618 3.468586 30.264664 9.028759
2010-04-28 07:58:51 51°16.781 2°57.324 11.2643 3.46827 30.25965 9.028759
2010-04-28 07:58:56 51°16.776 2°57.336 11.2634 3.46827 30.25965 9.028759
2010-04-28 07:59:02 51°16.768 2°57.347 11.2813 3.467848 30.254918 9.063583
2010-04-28 07:59:07 51°16.762 2°57.355 11.2569 3.467532 30.251206 9.063583
2010-04-28 07:59:11 51°16.757 2°57.361 11.269 3.467532 30.248604 9.063583
2010-04-28 07:59:16 51°16.751 2°57.367 11.2643 3.467321 30.245263 8.993935
2010-04-28 07:59:22 51°16.744 2°57.374 11.2531 3.467743 30.245441 8.993935
2010-04-28 07:59:27 51°16.738 2°57.378 11.2614 3.467743 30.245441 8.993935
2010-04-28 07:59:31 51°16.734 2°57.381 11.2484 3.467426 30.24173 8.854639
2010-04-28 07:59:36 51°16.728 2°57.385 11.2496 3.467216 30.24034 8.750167
2010-04-28 07:59:42 51°16.722 2°57.389 11.2455 3.467005 30.23765 8.924287
2010-04-28 07:59:47 51°16.716 2°57.392 11.2485 3.466583 30.235521 9.168055
2010-04-28 07:59:51 51°16.712 2°57.393 11.2321 3.466478 30.235151 9.446648
2010-04-28 07:59:56 51°16.707 2°57.396 11.245 3.466478 30.235151 9.446648
2010-04-28 08:00:01 51°16.702 2°57.397 11.2374 3.466161 30.232091 9.864537
2010-04-28 08:00:06 51°16.697 2°57.399 11.2404 3.466267 30.236362 10.143129
2010-04-28 08:00:11 51°16.692 2°57.4 11.2454 3.465951 30.236553 10.247601
2010-04-28 08:00:16 51°16.687 2°57.401 11.2309 3.465634 30.234793 10.317249
2010-04-28 08:00:21 51°16.683 2°57.402 11.2327 3.465002 30.231923 10.49137
2010-04-28 08:00:26 51°16.678 2°57.402 11.2324 3.465002 30.231923 10.49137
2010-04-28 08:00:31 51°16.673 2°57.403 11.234 3.465002 30.234524 10.700314
2010-04-28 08:00:36 51°16.669 2°57.402 11.2218 3.464475 30.232674 10.944082
2010-04-28 08:00:41 51°16.665 2°57.402 11.2239 3.464053 30.230544 11.048554
2010-04-28 08:00:47 51°16.659 2°57.401 11.2266 3.463737 30.228783 10.978906
2010-04-28 08:00:51 51°16.656 2°57.401 11.227 3.463526 30.227392 11.01373
2010-04-28 08:00:56 51°16.652 2°57.4 11.2216 3.463526 30.227392 11.01373
2010-04-28 08:01:02 51°16.647 2°57.399 11.2137 3.46321 30.226282 11.083378
2010-04-28 08:01:06 51°16.644 2°57.398 11.2142 3.462577 30.222109 11.048554
2010-04-28 08:01:11 51°16.64 2°57.397 11.2161 3.462894 30.227123 10.874434
2010-04-28 08:01:16 51°16.636 2°57.395 11.2126 3.462156 30.22258 10.49137
2010-04-28 08:01:22 51°16.631 2°57.393 11.221 3.461629 30.217476 9.829713
2010-04-28 08:01:27 51°16.627 2°57.392 11.2177 3.461629 30.217476 9.829713
2010-04-28 08:01:31 51°16.625 2°57.391 11.217 3.461207 30.214693 9.133231
2010-04-28 08:01:36 51°16.621 2°57.389 11.2275 3.46068 30.212191 8.784991
2010-04-28 08:01:42 51°16.617 2°57.387 11.2257 3.460047 30.206065 8.715343
2010-04-28 08:01:47 51°16.613 2°57.386 11.2299 3.459731 30.206255 8.541223
2010-04-28 08:01:51 51°16.61 2°57.384 11.2278 3.458888 30.200038 8.367102
2010-04-28 08:01:56 51°16.607 2°57.382 11.2328 3.458888 30.200038 8.367102
2010-04-28 08:02:01 51°16.603 2°57.381 11.2315 3.458888 30.200038 8.158158
2010-04-28 08:02:07 51°16.599 2°57.378 11.2334 3.458993 30.201059 8.227806
2010-04-28 08:02:11 51°16.596 2°57.377 11.2408 3.458782 30.199667 8.192982
2010-04-28 08:02:16 51°16.591 2°57.374 11.2491 3.459204 30.2018 8.332278
2010-04-28 08:02:22 51°16.586 2°57.371 11.2532 3.459731 30.204954 8.26263
2010-04-28 08:02:26 51°16.582 2°57.368 11.2621 3.459731 30.204954 8.26263
2010-04-28 08:02:31 51°16.577 2°57.364 11.2644 3.460153 30.207086 8.227806
2010-04-28 08:02:36 51°16.572 2°57.359 11.2585 3.460891 30.212281 8.401926
2010-04-28 08:02:41 51°16.567 2°57.353 11.2563 3.461418 30.217386 8.506398
2010-04-28 08:02:47 51°16.561 2°57.344 11.2444 3.461839 30.219517 8.123334
2010-04-28 08:02:51 51°16.557 2°57.337 11.2465 3.462367 30.220718 7.392029
2010-04-28 08:02:56 51°16.553 2°57.328 11.239 3.462367 30.220718 7.392029
2010-04-28 08:03:02 51°16.547 2°57.315 11.2337 3.46321 30.224981 6.869668
2010-04-28 08:03:06 51°16.545 2°57.305 11.233 3.463737 30.22293 6.521427
2010-04-28 08:03:11 51°16.541 2°57.291 11.2181 3.465213 30.232663 6.347307
2010-04-28 08:03:16 51°16.537 2°57.276 11.2209 3.466161 30.239244 6.451779
2010-04-28 08:03:22 51°16.531 2°57.256 11.2171 3.467005 30.246105 6.660724
2010-04-28 08:03:27 51°16.526 2°57.237 11.2235 3.467005 30.246105 6.660724
2010-04-28 08:03:31 51°16.522 2°57.222 11.2251 3.467532 30.25446 6.834844
2010-04-28 08:03:36 51°16.515 2°57.201 11.2332 3.468059 30.261515 6.97414
2010-04-28 08:03:42 51°16.508 2°57.174 11.2342 3.468059 30.266724 7.217908
2010-04-28 08:03:46 51°16.502 2°57.154 11.2348 3.468059 30.269981 7.426853
2010-04-28 08:03:51 51°16.495 2°57.129 11.2422 3.468059 30.275844 7.566149
2010-04-28 08:03:56 51°16.488 2°57.104 11.2344 3.468059 30.275844 7.566149
2010-04-28 08:04:01 51°16.48 2°57.077 11.2325 3.467954 30.279386 7.600973
2010-04-28 08:04:07 51°16.471 2°57.044 11.2269 3.467743 30.279951 7.357205
2010-04-28 08:04:11 51°16.465 2°57.022 11.2236 3.467849 30.280972 7.078612
2010-04-28 08:04:16 51°16.458 2°56.994 11.2242 3.467743 30.279299 6.80002
2010-04-28 08:04:21 51°16.45 2°56.966 11.2232 3.467743 30.276692 6.730372
2010-04-28 08:04:27 51°16.442 2°56.931 11.2176 3.467743 30.276692 6.730372
2010-04-28 08:04:31 51°16.436 2°56.908 11.218 3.468165 30.277517 6.904492
2010-04-28 08:04:36 51°16.429 2°56.879 11.2161 3.468481 30.279277 7.461677
2010-04-28 08:04:41 51°16.422 2°56.85 11.2118 3.468586 30.280298 7.984038
2010-04-28 08:04:47 51°16.414 2°56.814 11.2108 3.468376 30.280211 8.332278
2010-04-28 08:04:51 51°16.409 2°56.791 11.2093 3.467743 30.276692 8.332278
2010-04-28 08:04:56 51°16.402 2°56.761 11.2068 3.467743 30.276692 8.332278
2010-04-28 08:05:02 51°16.394 2°56.725 11.2003 3.467216 30.271586 8.471574
2010-04-28 08:05:06 51°16.388 2°56.701 11.1914 3.467638 30.276974 8.541223
2010-04-28 08:05:11 51°16.382 2°56.671 11.1863 3.467954 30.281993 8.401926
2010-04-28 08:05:16 51°16.374 2°56.642 11.187 3.468165 30.285992 8.471574
2010-04-28 08:05:22 51°16.365 2°56.606 11.1874 3.46827 30.290274 8.367102
2010-04-28 08:05:27 51°16.358 2°56.576 11.1797 3.46827 30.290274 8.367102
2010-04-28 08:05:31 51°16.352 2°56.552 11.1828 3.46827 30.292231 8.297454
2010-04-28 08:05:36 51°16.344 2°56.522 11.18 3.468587 30.295948 8.227806
2010-04-28 08:05:42 51°16.335 2°56.486 11.1737 3.468587 30.301169 8.26263
2010-04-28 08:05:46 51°16.329 2°56.462 11.1703 3.468587 30.30378 8.08851
2010-04-28 08:05:51 51°16.323 2°56.431 11.1624 3.468481 30.307329 7.705445
2010-04-28 08:05:56 51°16.317 2°56.4 11.1595 3.468481 30.307329 7.705445
2010-04-28 08:06:02 51°16.31 2°56.363 11.1517 3.468481 30.309941 7.775093
2010-04-28 08:06:07 51°16.303 2°56.332 11.1481 3.468587 30.316189 7.844741
2010-04-28 08:06:11 51°16.299 2°56.307 11.1456 3.468376 30.315452 8.018862
2010-04-28 08:06:16 51°16.293 2°56.276 11.1455 3.468587 30.317496 8.08851
2010-04-28 08:06:22 51°16.287 2°56.239 11.1441 3.468587 30.317496 8.08851
2010-04-28 08:06:27 51°16.281 2°56.208 11.1428 3.468482 30.319088 8.297454
2010-04-28 08:06:31 51°16.277 2°56.183 11.1421 3.468376 30.321988 8.401926
2010-04-28 08:06:36 51°16.271 2°56.151 11.14 3.468376 30.327218 8.471574
2010-04-28 08:06:41 51°16.265 2°56.12 11.1421 3.468587 30.335151 8.367102
2010-04-28 08:06:47 51°16.258 2°56.082 11.143 3.468482 30.336745 8.297454
2010-04-28 08:06:51 51°16.253 2°56.057 11.1452 3.468693 30.343373 8.227806
2010-04-28 08:06:56 51°16.247 2°56.026 11.1444 3.468693 30.343373 8.227806
2010-04-28 08:07:01 51°16.241 2°55.995 11.1502 3.468271 30.341244 8.053686
2010-04-28 08:07:06 51°16.234 2°55.964 11.1495 3.468693 30.349266 7.879566
2010-04-28 08:07:11 51°16.228 2°55.933 11.1438 3.468693 30.350576 7.809917
2010-04-28 08:07:16 51°16.222 2°55.901 11.1382 3.468587 30.352172 7.775093
2010-04-28 08:07:22 51°16.214 2°55.863 11.1406 3.468904 30.355898 7.809917
2010-04-28 08:07:27 51°16.209 2°55.832 11.1362 3.468904 30.355898 7.809917
2010-04-28 08:07:31 51°16.204 2°55.806 11.1365 3.468798 30.354219 7.879566
2010-04-28 08:07:36 51°16.199 2°55.775 11.1313 3.46922 30.358313 7.775093
2010-04-28 08:07:41 51°16.194 2°55.743 11.1374 3.468904 30.353278 7.496501
2010-04-28 08:07:47 51°16.188 2°55.704 11.1368 3.46922 30.355693 6.97414
2010-04-28 08:07:51 51°16.184 2°55.679 11.1388 3.469114 30.355979 6.695548
2010-04-28 08:07:56 51°16.179 2°55.646 11.1347 3.469114 30.355979 6.695548
2010-04-28 08:08:02 51°16.174 2°55.608 11.1339 3.468693 30.353196 6.556251
2010-04-28 08:08:07 51°16.171 2°55.575 11.1308 3.467955 30.347997 6.869668
2010-04-28 08:08:11 51°16.168 2°55.549 11.1198 3.468482 30.353769 7.183084
2010-04-28 08:08:16 51°16.164 2°55.517 11.1219 3.467955 30.350617 7.461677
2010-04-28 08:08:22 51°16.16 2°55.478 11.1179 3.468377 30.354056 7.775093
2010-04-28 08:08:27 51°16.157 2°55.445 11.1201 3.468377 30.354056 7.775093
2010-04-28 08:08:31 51°16.155 2°55.419 11.1227 3.467428 30.344844 8.471574
2010-04-28 08:08:36 51°16.152 2°55.386 11.1194 3.468693 30.357127 8.993935
2010-04-28 08:08:41 51°16.148 2°55.354 11.1141 3.46922 30.3629 9.272528
2010-04-28 08:08:47 51°16.144 2°55.315 11.1126 3.469747 30.36933 9.446648
2010-04-28 08:08:51 51°16.141 2°55.289 11.1136 3.469431 30.369537 9.307352
2010-04-28 08:08:56 51°16.137 2°55.256 11.1133 3.469431 30.369537 9.307352
2010-04-28 08:09:01 51°16.134 2°55.223 11.1135 3.469536 30.372528 9.307352
2010-04-28 08:09:07 51°16.129 2°55.184 11.1137 3.46922 30.372735 9.20288
2010-04-28 08:09:11 51°16.126 2°55.158 11.1134 3.469009 30.371343 9.237704
2010-04-28 08:09:16 51°16.122 2°55.126 11.112 3.469115 30.374335 9.55112
2010-04-28 08:09:21 51°16.119 2°55.093 11.1117 3.469326 30.378351 9.899361
2010-04-28 08:09:27 51°16.114 2°55.054 11.108 3.469326 30.378351 9.899361
2010-04-28 08:09:31 51°16.111 2°55.028 11.1028 3.467955 30.366349 10.317249
2010-04-28 08:09:36 51°16.108 2°54.995 11.1091 3.468904 30.377535 10.83961
2010-04-28 08:09:41 51°16.105 2°54.962 11.0999 3.468166 30.36971 11.187851
2010-04-28 08:09:47 51°16.101 2°54.923 11.0977 3.467112 30.36078 11.396795
2010-04-28 08:09:51 51°16.098 2°54.897 11.0932 3.467112 30.36078 11.396795
2010-04-28 08:09:56 51°16.095 2°54.864 11.0868 3.466901 30.359387 11.466443
2010-04-28 08:10:02 51°16.091 2°54.824 11.0869 3.46785 30.367949 11.570915
2010-04-28 08:10:07 51°16.088 2°54.792 11.084 3.467955 30.371597 11.710211
2010-04-28 08:10:11 51°16.085 2°54.765 11.0788 3.46785 30.369917 11.814684
2010-04-28 08:10:16 51°16.082 2°54.732 11.0757 3.466796 30.362298 11.884332
2010-04-28 08:10:22 51°16.079 2°54.693 11.0728 3.468061 30.376559 12.093276
2010-04-28 08:10:27 51°16.076 2°54.66 11.0653 3.468061 30.376559 12.093276
2010-04-28 08:10:31 51°16.074 2°54.634 11.0631 3.468166 30.380866 12.197748
2010-04-28 08:10:36 51°16.071 2°54.601 11.0596 3.467007 30.373534 12.162924
2010-04-28 08:10:41 51°16.069 2°54.568 11.0566 3.467112 30.377185 11.95398
2010-04-28 08:10:47 51°16.065 2°54.528 11.059 3.468272 30.391084 11.849508
2010-04-28 08:10:51 51°16.063 2°54.502 11.0574 3.467007 30.383384 11.745035
2010-04-28 08:10:56 51°16.06 2°54.469 11.0564 3.467007 30.383384 11.745035
2010-04-28 08:11:01 51°16.057 2°54.436 11.0502 3.468799 30.404096 11.675387
2010-04-28 08:11:06 51°16.054 2°54.403 11.0508 3.468799 30.406726 11.570915
2010-04-28 08:11:11 51°16.05 2°54.37 11.0426 3.469326 30.417114 11.396795
2010-04-28 08:11:16 51°16.047 2°54.337 11.0406 3.467956 30.405757 11.257499
2010-04-28 08:11:21 51°16.044 2°54.304 11.0362 3.469115 30.420327 10.909258
2010-04-28 08:11:26 51°16.041 2°54.271 11.0361 3.469115 30.420327 10.909258
2010-04-28 08:11:31 51°16.038 2°54.238 11.0322 3.469643 30.42743 10.769962
2010-04-28 08:11:36 51°16.035 2°54.205 11.0327 3.469537 30.428379 10.944082
2010-04-28 08:11:41 51°16.032 2°54.171 11.037 3.469643 30.432697 11.118203
2010-04-28 08:11:47 51°16.028 2°54.132 11.0407 3.467745 30.415548 11.257499
2010-04-28 08:11:51 51°16.025 2°54.105 11.0438 3.469326 30.43423 11.222675
2010-04-28 08:11:56 51°16.022 2°54.072 11.0406 3.469326 30.43423 11.222675
2010-04-28 08:12:02 51°16.018 2°54.032 11.0417 3.468272 30.429238 10.978906
2010-04-28 08:12:06 51°16.016 2°54.006 11.0522 3.469537 30.442871 10.561018
2010-04-28 08:12:11 51°16.012 2°53.973 11.0478 3.469537 30.445507 9.969009
2010-04-28 08:12:16 51°16.009 2°53.94 11.0505 3.469854 30.450564 9.516296
2010-04-28 08:12:22 51°16.005 2°53.9 11.055 3.469643 30.448511 9.377
2010-04-28 08:12:27 51°16.001 2°53.867 11.058 3.469643 30.448511 9.377
2010-04-28 08:12:31 51°15.998 2°53.84 11.0611 3.469748 30.44756 9.899361
2010-04-28 08:12:36 51°15.995 2°53.807 11.0569 3.469326 30.442136 10.317249
2010-04-28 08:12:42 51°15.991 2°53.767 11.0464 3.469432 30.443163 10.212777
2010-04-28 08:12:46 51°15.989 2°53.741 11.039 3.469537 30.442212 10.247601
2010-04-28 08:12:51 51°15.985 2°53.708 11.03 3.468272 30.427262 10.317249
2010-04-28 08:12:56 51°15.982 2°53.675 11.0233 3.468272 30.427262 10.317249
2010-04-28 08:13:02 51°15.978 2°53.635 11.0199 3.467851 30.4225 10.003833
2010-04-28 08:13:07 51°15.975 2°53.602 11.0064 3.468905 30.430784 9.516296
2010-04-28 08:13:11 51°15.972 2°53.576 11.0005 3.467534 30.414813 9.168055
2010-04-28 08:13:16 51°15.968 2°53.543 10.9846 3.469326 30.431595 9.133231
2010-04-28 08:13:21 51°15.963 2°53.51 10.9666 3.469326 30.431595 9.133231
2010-04-28 08:13:27 51°15.958 2°53.471 10.9539 3.468272 30.424628 9.133231
2010-04-28 08:13:31 51°15.954 2°53.445 10.9568 3.468799 30.43371 8.993935
2010-04-28 08:13:36 51°15.95 2°53.412 10.9664 3.469116 30.443379 8.645695
2010-04-28 08:13:41 51°15.945 2°53.379 10.9348 3.468905 30.4466 8.158158
2010-04-28 08:13:47 51°15.939 2°53.34 10.9067 3.468589 30.451434 7.670621
2010-04-28 08:13:51 51°15.935 2°53.314 10.8938 3.468483 30.457665 7.496501
2010-04-28 08:13:56 51°15.93 2°53.282 10.8838 3.468483 30.457665 7.496501
2010-04-28 08:14:02 51°15.924 2°53.243 10.88 3.470381 30.485402 7.91439
2010-04-28 08:14:06 51°15.919 2°53.218 10.8768 3.47133 30.506553 8.332278
2010-04-28 08:14:11 51°15.914 2°53.186 10.8748 3.47386 30.539835 8.297454
2010-04-28 08:14:16 51°15.909 2°53.154 10.8761 3.474915 30.555421 9.377
2010-04-28 08:14:22 51°15.903 2°53.115 10.8725 3.47618 30.577717 11.501267
2010-04-28 08:14:27 51°15.898 2°53.082 10.8669 3.47618 30.577717 11.501267
2010-04-28 08:14:31 51°15.894 2°53.057 10.8627 3.477761 30.609098 12.963877
2010-04-28 08:14:36 51°15.888 2°53.025 10.8634 3.477551 30.621005 13.904127
2010-04-28 08:14:41 51°15.883 2°52.993 10.859 3.478184 30.637838 14.739904
2010-04-28 08:14:47 51°15.877 2°52.954 10.8569 3.478078 30.645469 15.436385
2010-04-28 08:14:51 51°15.872 2°52.929 10.8514 3.477867 30.649406 16.341811
2010-04-28 08:14:56 51°15.868 2°52.896 10.8509 3.477867 30.649406 16.341811
2010-04-28 08:15:02 51°15.861 2°52.858 10.842 3.477551 30.650313 17.595476
2010-04-28 08:15:07 51°15.856 2°52.826 10.8451 3.476286 30.641274 18.779494
2010-04-28 08:15:11 51°15.852 2°52.8 10.8398 3.476392 30.647639 19.510799
2010-04-28 08:15:16 51°15.847 2°52.768 10.8311 3.476286 30.649276 20.067984
2010-04-28 08:15:21 51°15.841 2°52.736 10.8462 3.476286 30.649276 20.067984
2010-04-28 08:15:27 51°15.835 2°52.697 10.8358 3.475548 30.64339 20.694817
2010-04-28 08:15:31 51°15.831 2°52.671 10.8257 3.47597 30.652853 21.32165
2010-04-28 08:15:36 51°15.826 2°52.639 10.8239 3.475759 30.652124 21.913659
2010-04-28 08:15:41 51°15.821 2°52.607 10.8228 3.475759 30.656796 22.192252
2010-04-28 08:15:47 51°15.815 2°52.568 10.8277 3.475654 30.658434 22.43602
2010-04-28 08:15:51 51°15.811 2°52.543 10.8303 3.475443 30.659708 22.819085
2010-04-28 08:15:56 51°15.806 2°52.51 10.8292 3.475443 30.659708 22.819085
2010-04-28 08:16:01 51°15.801 2°52.478 10.8238 3.475338 30.662015 22.157428
2010-04-28 08:16:06 51°15.795 2°52.446 10.8239 3.47576 30.668147 22.122603
2010-04-28 08:16:11 51°15.79 2°52.414 10.815 3.476498 30.677378 21.948483
2010-04-28 08:16:16 51°15.785 2°52.382 10.81 3.476287 30.679991 21.983307
2010-04-28 08:16:22 51°15.779 2°52.343 10.8175 3.476603 30.685094 21.669891
2010-04-28 08:16:27 51°15.773 2°52.311 10.803 3.476603 30.685094 21.669891
2010-04-28 08:16:31 51°15.769 2°52.286 10.8018 3.476919 30.689529 21.460946
2010-04-28 08:16:36 51°15.764 2°52.253 10.8084 3.477657 30.696089 21.217178
2010-04-28 08:16:41 51°15.759 2°52.221 10.8058 3.477868 30.699492 20.903762
2010-04-28 08:16:47 51°15.753 2°52.183 10.7979 3.477974 30.702531 20.764465
2010-04-28 08:16:51 51°15.748 2°52.157 10.7974 3.477974 30.702531 20.764465
2010-04-28 08:16:56 51°15.744 2°52.125 10.7959 3.47829 30.708306 20.381401
2010-04-28 08:17:02 51°15.737 2°52.087 10.7992 3.47829 30.710984 20.067984
2010-04-28 08:17:07 51°15.732 2°52.055 10.7993 3.478817 30.718827 20.520697
2010-04-28 08:17:11 51°15.728 2°52.029 10.8006 3.478606 30.720779 19.754568
2010-04-28 08:17:16 51°15.723 2°51.997 10.7974 3.479028 30.726921 18.779494
2010-04-28 08:17:22 51°15.716 2°51.959 10.8034 3.479133 30.728625 18.291958
2010-04-28 08:17:27 51°15.711 2°51.927 10.8085 3.479133 30.728625 18.291958
2010-04-28 08:17:31 51°15.707 2°51.901 10.7999 3.479344 30.734042 17.734773
2010-04-28 08:17:36 51°15.702 2°51.869 10.792 3.479028 30.732953 17.073116
2010-04-28 08:17:41 51°15.697 2°51.837 10.7826 3.479661 30.740494 16.341811
2010-04-28 08:17:47 51°15.691 2°51.799 10.7711 3.480082 30.745299 15.784626
2010-04-28 08:17:51 51°15.687 2°51.773 10.7601 3.480188 30.746332 15.192617
2010-04-28 08:17:56 51°15.682 2°51.741 10.7571 3.480188 30.746332 15.192617
2010-04-28 08:18:01 51°15.677 2°51.709 10.7507 3.479872 30.743232 14.635432
2010-04-28 08:18:06 51°15.673 2°51.677 10.7498 3.480715 30.750159 14.182719
2010-04-28 08:18:11 51°15.668 2°51.645 10.7491 3.481453 30.756723 14.217543
2010-04-28 08:18:16 51°15.663 2°51.612 10.7482 3.481031 30.755272 14.670256
2010-04-28 08:18:21 51°15.658 2°51.581 10.7478 3.481664 30.767514 15.018497
2010-04-28 08:18:27 51°15.652 2°51.543 10.7524 3.481664 30.767514 15.018497
2010-04-28 08:18:31 51°15.647 2°51.518 10.7718 3.481664 30.774899 15.122969
2010-04-28 08:18:36 51°15.639 2°51.487 10.7818 3.481137 30.776445 15.227441
2010-04-28 08:18:41 51°15.629 2°51.459 10.8239 3.480504 30.777629 14.948848
2010-04-28 08:18:47 51°15.614 2°51.428 10.8333 3.479872 30.776126 14.287191
2010-04-28 08:18:51 51°15.603 2°51.409 10.8319 3.479872 30.776126 14.287191
2010-04-28 08:18:56 51°15.591 2°51.383 10.8092 3.481032 30.790869 13.764831
2010-04-28 08:19:02 51°15.576 2°51.353 10.7794 3.481664 30.799769 13.41659
2010-04-28 08:19:07 51°15.564 2°51.326 10.7604 3.480399 30.789367 12.511165
2010-04-28 08:19:11 51°15.554 2°51.305 10.743 3.48177 30.800131 11.431619
2010-04-28 08:19:16 51°15.543 2°51.277 10.7299 3.481664 30.791698 9.864537
2010-04-28 08:19:22 51°15.529 2°51.244 10.7281 3.483562 30.794858 8.959111
2010-04-28 08:19:27 51°15.517 2°51.217 10.7288 3.483562 30.794858 8.959111
2010-04-28 08:19:31 51°15.508 2°51.195 10.7286 3.485037 30.792538 9.098407